Wetterdaten: Dienstag, 26.07.2022
Datum Zeit Temp. Aussen Temp. o. S. Temp +5cm Feuchte Auss Luftdruck Regen Sonnenschein Regendauer Solar Windben Empfang
26.07.2022 00:00 20,9 C 20,0 C 16,7 C 68 % 1013,1 hPa 0,0 l/m 0 min 0 min 0 W/m 6,4 km/h (2 Bft) 95,74 %
26.07.2022 00:02 20,8 C 19,4 C 16,7 C 69 % 1013,2 hPa 0,0 l/m 0 min 0 min 0 W/m 6,4 km/h (2 Bft) 97,44 %
26.07.2022 00:04 20,8 C 19,4 C 16,7 C 69 % 1013,3 hPa 0,0 l/m 0 min 0 min 0 W/m 9,7 km/h (2 Bft) 95,74 %
26.07.2022 00:08 20,7 C 19,4 C 16,1 C 69 % 1013,3 hPa 0,0 l/m 0 min 0 min 0 W/m 12,9 km/h (3 Bft) 97,92 %
26.07.2022 00:10 20,6 C 19,4 C 16,1 C 70 % 1013,3 hPa 0,0 l/m 0 min 0 min 0 W/m 6,4 km/h (2 Bft) 100,00 %
26.07.2022 00:12 20,6 C 19,4 C 16,1 C 70 % 1013,4 hPa 0,0 l/m 0 min 0 min 0 W/m 9,7 km/h (2 Bft) 97,83 %
26.07.2022 00:14 20,6 C 19,4 C 16,1 C 70 % 1013,4 hPa 0,0 l/m 0 min 0 min 0 W/m 6,4 km/h (2 Bft) 100,00 %
26.07.2022 00:16 20,4 C 19,4 C 16,1 C 70 % 1013,4 hPa 0,0 l/m 0 min 0 min 0 W/m 6,4 km/h (2 Bft) 97,87 %
26.07.2022 00:18 20,4 C 19,4 C 16,1 C 70 % 1013,4 hPa 0,0 l/m 0 min 0 min 0 W/m 6,4 km/h (2 Bft) 97,87 %
26.07.2022 00:20 20,3 C 19,4 C 16,1 C 71 % 1013,4 hPa 0,0 l/m 0 min 0 min 0 W/m 6,4 km/h (2 Bft) 100,00 %
26.07.2022 00:22 20,3 C 19,4 C 16,1 C 71 % 1013,4 hPa 0,0 l/m 0 min 0 min 0 W/m 9,7 km/h (2 Bft) 100,00 %
26.07.2022 00:24 20,3 C 18,9 C 16,1 C 71 % 1013,4 hPa 0,0 l/m 0 min 0 min 0 W/m 9,7 km/h (2 Bft) 100,00 %
26.07.2022 00:26 20,3 C 18,9 C 16,1 C 71 % 1013,5 hPa 0,0 l/m 0 min 0 min 0 W/m 9,7 km/h (2 Bft) 100,00 %
26.07.2022 00:28 20,2 C 18,9 C 16,1 C 71 % 1013,5 hPa 0,0 l/m 0 min 0 min 0 W/m 6,4 km/h (2 Bft) 100,00 %
26.07.2022 00:30 20,2 C 18,9 C 16,1 C 71 % 1013,5 hPa 0,0 l/m 0 min 0 min 0 W/m 12,9 km/h (3 Bft) 100,00 %
26.07.2022 00:32 20,2 C 18,9 C 16,1 C 71 % 1013,5 hPa 0,0 l/m 0 min 0 min 0 W/m 9,7 km/h (2 Bft) 100,00 %
26.07.2022 00:34 20,1 C 18,9 C 16,1 C 71 % 1013,6 hPa 0,0 l/m 0 min 0 min 0 W/m 9,7 km/h (2 Bft) 100,00 %
26.07.2022 00:36 20,1 C 18,9 C 16,1 C 71 % 1013,5 hPa 0,0 l/m 0 min 0 min 0 W/m 12,9 km/h (3 Bft) 97,83 %
26.07.2022 00:38 20,1 C 18,9 C 16,1 C 71 % 1013,5 hPa 0,0 l/m 0 min 0 min 0 W/m 9,7 km/h (2 Bft) 100,00 %
26.07.2022 00:40 20,1 C 18,9 C 16,1 C 71 % 1013,4 hPa 0,0 l/m 0 min 0 min 0 W/m 16,1 km/h (3 Bft) 100,00 %
26.07.2022 00:42 20,0 C 18,9 C 16,1 C 71 % 1013,5 hPa 0,0 l/m 0 min 0 min 0 W/m 12,9 km/h (3 Bft) 100,00 %
26.07.2022 00:44 20,0 C 18,9 C 16,1 C 72 % 1013,5 hPa 0,0 l/m 0 min 0 min 0 W/m 16,1 km/h (3 Bft) 100,00 %
26.07.2022 00:46 20,0 C 18,9 C 16,1 C 72 % 1013,5 hPa 0,0 l/m 0 min 0 min 0 W/m 12,9 km/h (3 Bft) 97,87 %
26.07.2022 00:48 19,9 C 18,9 C 16,1 C 72 % 1013,6 hPa 0,0 l/m 0 min 0 min 0 W/m 16,1 km/h (3 Bft) 100,00 %
26.07.2022 00:50 19,9 C 18,9 C 16,1 C 72 % 1013,6 hPa 0,0 l/m 0 min 0 min 0 W/m 12,9 km/h (3 Bft) 97,87 %
26.07.2022 00:52 19,9 C 18,9 C 16,1 C 72 % 1013,6 hPa 0,0 l/m 0 min 0 min 0 W/m 16,1 km/h (3 Bft) 95,74 %
26.07.2022 00:54 19,9 C 18,9 C 16,1 C 72 % 1013,7 hPa 0,0 l/m 0 min 0 min 0 W/m 12,9 km/h (3 Bft) 97,87 %
26.07.2022 00:56 19,9 C 18,9 C 16,1 C 72 % 1013,6 hPa 0,0 l/m 0 min 0 min 0 W/m 9,7 km/h (2 Bft) 97,87 %
26.07.2022 00:58 19,9 C 18,9 C 16,1 C 72 % 1013,6 hPa 0,0 l/m 0 min 0 min 0 W/m 6,4 km/h (2 Bft) 97,87 %
26.07.2022 01:00 19,9 C 18,9 C 16,1 C 72 % 1013,6 hPa 0,0 l/m 0 min 0 min 0 W/m 9,7 km/h (2 Bft) 95,65 %
26.07.2022 01:02 19,9 C 18,9 C 16,1 C 72 % 1013,6 hPa 0,0 l/m 0 min 0 min 0 W/m 6,4 km/h (2 Bft) 97,87 %
26.07.2022 01:04 19,9 C 18,9 C 16,1 C 72 % 1013,7 hPa 0,0 l/m 0 min 0 min 0 W/m 6,4 km/h (2 Bft) 95,74 %
26.07.2022 01:06 19,9 C 18,9 C 16,1 C 72 % 1013,7 hPa 0,0 l/m 0 min 0 min 0 W/m 6,4 km/h (2 Bft) 95,74 %
26.07.2022 01:08 19,9 C 18,9 C 16,1 C 72 % 1013,7 hPa 0,0 l/m 0 min 0 min 0 W/m 6,4 km/h (2 Bft) 97,87 %
26.07.2022 01:10 19,9 C 18,9 C 16,1 C 72 % 1013,7 hPa 0,0 l/m 0 min 0 min 0 W/m 3,2 km/h (1 Bft) 97,87 %
26.07.2022 01:12 19,9 C 18,9 C 16,1 C 72 % 1013,8 hPa 0,0 l/m 0 min 0 min 0 W/m 6,4 km/h (2 Bft) 97,83 %
26.07.2022 01:14 19,9 C 18,9 C 16,1 C 72 % 1013,8 hPa 0,0 l/m 0 min 0 min 0 W/m 6,4 km/h (2 Bft) 97,87 %
26.07.2022 01:16 19,9 C 18,9 C 16,1 C 73 % 1013,7 hPa 0,0 l/m 0 min 0 min 0 W/m 3,2 km/h (1 Bft) 97,87 %
26.07.2022 01:18 19,9 C 18,9 C 16,1 C 72 % 1013,8 hPa 0,0 l/m 0 min 0 min 0 W/m 6,4 km/h (2 Bft) 97,87 %
26.07.2022 01:20 19,9 C 18,9 C 16,1 C 72 % 1013,7 hPa 0,0 l/m 0 min 0 min 0 W/m 3,2 km/h (1 Bft) 97,87 %
26.07.2022 01:22 19,8 C 18,9 C 15,6 C 72 % 1013,8 hPa 0,0 l/m 0 min 0 min 0 W/m 6,4 km/h (2 Bft) 95,74 %
26.07.2022 01:24 19,8 C 18,9 C 15,6 C 73 % 1013,8 hPa 0,0 l/m 0 min 0 min 0 W/m 3,2 km/h (1 Bft) 93,48 %
26.07.2022 01:26 19,8 C 18,9 C 15,6 C 73 % 1013,8 hPa 0,0 l/m 0 min 0 min 0 W/m 3,2 km/h (1 Bft) 97,87 %
26.07.2022 01:28 19,8 C 18,9 C 15,6 C 73 % 1013,8 hPa 0,0 l/m 0 min 0 min 0 W/m 3,2 km/h (1 Bft) 95,74 %
26.07.2022 01:30 19,8 C 18,9 C 15,6 C 73 % 1013,8 hPa 0,0 l/m 0 min 0 min 0 W/m 3,2 km/h (1 Bft) 95,74 %
26.07.2022 01:32 19,8 C 18,9 C 15,6 C 73 % 1013,9 hPa 0,0 l/m 0 min 0 min 0 W/m 6,4 km/h (2 Bft) 93,62 %
26.07.2022 01:34 19,7 C 18,9 C 15,6 C 73 % 1013,9 hPa 0,0 l/m 0 min 0 min 0 W/m 9,7 km/h (2 Bft) 95,74 %
26.07.2022 01:36 19,7 C 18,9 C 15,6 C 73 % 1013,9 hPa 0,0 l/m 0 min 0 min 0 W/m 6,4 km/h (2 Bft) 93,48 %
26.07.2022 01:38 19,7 C 18,3 C 15,6 C 73 % 1014,0 hPa 0,0 l/m 0 min 0 min 0 W/m 9,7 km/h (2 Bft) 95,74 %
26.07.2022 01:40 19,6 C 18,3 C 15,6 C 74 % 1014,0 hPa 0,0 l/m 0 min 0 min 0 W/m 6,4 km/h (2 Bft) 97,87 %
26.07.2022 01:42 19,6 C 18,3 C 15,6 C 74 % 1013,9 hPa 0,0 l/m 0 min 0 min 0 W/m 9,7 km/h (2 Bft) 97,87 %
26.07.2022 01:44 19,6 C 18,3 C 15,6 C 74 % 1013,9 hPa 0,0 l/m 0 min 0 min 0 W/m 6,4 km/h (2 Bft) 97,87 %
26.07.2022 01:46 19,5 C 18,3 C 15,6 C 74 % 1013,9 hPa 0,0 l/m 0 min 0 min 0 W/m 9,7 km/h (2 Bft) 95,74 %
26.07.2022 01:48 19,4 C 18,3 C 15,6 C 74 % 1014,0 hPa 0,0 l/m 0 min 0 min 0 W/m 9,7 km/h (2 Bft) 97,83 %
26.07.2022 01:50 19,4 C 18,3 C 15,6 C 74 % 1014,0 hPa 0,0 l/m 0 min 0 min 0 W/m 6,4 km/h (2 Bft) 97,87 %
26.07.2022 01:52 19,4 C 18,3 C 15,0 C 74 % 1014,0 hPa 0,0 l/m 0 min 0 min 0 W/m 6,4 km/h (2 Bft) 97,87 %
26.07.2022 01:54 19,4 C 18,3 C 15,0 C 74 % 1014,0 hPa 0,0 l/m 0 min 0 min 0 W/m 12,9 km/h (3 Bft) 95,74 %
26.07.2022 01:56 19,3 C 18,3 C 15,0 C 75 % 1014,0 hPa 0,0 l/m 0 min 0 min 0 W/m 6,4 km/h (2 Bft) 95,74 %
26.07.2022 01:58 19,3 C 18,3 C 15,0 C 75 % 1014,0 hPa 0,0 l/m 0 min 0 min 0 W/m 3,2 km/h (1 Bft) 97,87 %
26.07.2022 02:00 19,3 C 18,3 C 15,0 C 75 % 1014,0 hPa 0,0 l/m 0 min 0 min 0 W/m 6,4 km/h (2 Bft) 97,83 %
26.07.2022 02:02 19,3 C 18,3 C 15,0 C 75 % 1014,0 hPa 0,0 l/m 0 min 0 min 0 W/m 9,7 km/h (2 Bft) 97,87 %
26.07.2022 02:04 19,3 C 18,3 C 15,0 C 75 % 1014,0 hPa 0,0 l/m 0 min 0 min 0 W/m 6,4 km/h (2 Bft) 100,00 %
26.07.2022 02:06 19,3 C 18,3 C 15,0 C 75 % 1014,0 hPa 0,0 l/m 0 min 0 min 0 W/m 6,4 km/h (2 Bft) 100,00 %
26.07.2022 02:08 19,2 C 18,3 C 15,0 C 75 % 1014,0 hPa 0,0 l/m 0 min 0 min 0 W/m 3,2 km/h (1 Bft) 100,00 %
26.07.2022 02:10 19,2 C 18,3 C 15,0 C 76 % 1014,0 hPa 0,0 l/m 0 min 0 min 0 W/m 6,4 km/h (2 Bft) 97,87 %
26.07.2022 02:12 19,2 C 18,3 C 15,0 C 76 % 1014,0 hPa 0,0 l/m 0 min 0 min 0 W/m 6,4 km/h (2 Bft) 97,83 %
26.07.2022 02:14 19,1 C 18,3 C 15,0 C 76 % 1014,0 hPa 0,0 l/m 0 min 0 min 0 W/m 3,2 km/h (1 Bft) 97,87 %
26.07.2022 02:16 19,1 C 18,3 C 15,0 C 76 % 1014,0 hPa 0,0 l/m 0 min 0 min 0 W/m 3,2 km/h (1 Bft) 97,87 %
26.07.2022 02:18 19,1 C 17,8 C 15,0 C 76 % 1014,1 hPa 0,0 l/m 0 min 0 min 0 W/m 3,2 km/h (1 Bft) 97,87 %
26.07.2022 02:20 19,1 C 17,8 C 15,0 C 76 % 1014,0 hPa 0,0 l/m 0 min 0 min 0 W/m 3,2 km/h (1 Bft) 95,74 %
26.07.2022 02:22 19,1 C 17,8 C 15,0 C 76 % 1014,0 hPa 0,0 l/m 0 min 0 min 0 W/m 9,7 km/h (2 Bft) 97,87 %
26.07.2022 02:24 19,0 C 17,8 C 15,0 C 76 % 1014,1 hPa 0,0 l/m 0 min 0 min 0 W/m 9,7 km/h (2 Bft) 97,83 %
26.07.2022 02:26 19,0 C 17,8 C 15,0 C 76 % 1014,1 hPa 0,0 l/m 0 min 0 min 0 W/m 9,7 km/h (2 Bft) 97,87 %
26.07.2022 02:28 18,9 C 17,8 C 15,0 C 77 % 1014,1 hPa 0,0 l/m 0 min 0 min 0 W/m 6,4 km/h (2 Bft) 97,87 %
26.07.2022 02:30 18,9 C 17,8 C 14,4 C 77 % 1014,0 hPa 0,0 l/m 0 min 0 min 0 W/m 9,7 km/h (2 Bft) 97,87 %
26.07.2022 02:32 18,9 C 17,8 C 14,4 C 77 % 1014,0 hPa 0,0 l/m 0 min 0 min 0 W/m 6,4 km/h (2 Bft) 97,87 %
26.07.2022 02:34 18,8 C 17,8 C 15,0 C 77 % 1013,9 hPa 0,0 l/m 0 min 0 min 0 W/m 6,4 km/h (2 Bft) 97,87 %
26.07.2022 02:36 18,8 C 17,8 C 15,0 C 77 % 1014,0 hPa 0,0 l/m 0 min 0 min 0 W/m 12,9 km/h (3 Bft) 95,65 %
26.07.2022 02:38 18,8 C 17,8 C 15,0 C 77 % 1013,9 hPa 0,0 l/m 0 min 0 min 0 W/m 6,4 km/h (2 Bft) 97,87 %
26.07.2022 02:40 18,8 C 17,8 C 15,0 C 77 % 1013,9 hPa 0,0 l/m 0 min 0 min 0 W/m 9,7 km/h (2 Bft) 97,87 %
26.07.2022 02:42 18,8 C 17,8 C 14,4 C 78 % 1013,9 hPa 0,0 l/m 0 min 0 min 0 W/m 6,4 km/h (2 Bft) 97,87 %
26.07.2022 02:44 18,7 C 17,8 C 14,4 C 78 % 1014,0 hPa 0,0 l/m 0 min 0 min 0 W/m 3,2 km/h (1 Bft) 95,74 %
26.07.2022 02:46 18,7 C 17,8 C 14,4 C 78 % 1014,0 hPa 0,0 l/m 0 min 0 min 0 W/m 3,2 km/h (1 Bft) 97,87 %
26.07.2022 02:48 18,7 C 17,8 C 14,4 C 78 % 1013,9 hPa 0,0 l/m 0 min 0 min 0 W/m 6,4 km/h (2 Bft) 97,83 %
26.07.2022 02:50 18,6 C 17,8 C 14,4 C 78 % 1013,9 hPa 0,0 l/m 0 min 0 min 0 W/m 6,4 km/h (2 Bft) 95,74 %
26.07.2022 02:52 18,6 C 17,2 C 14,4 C 78 % 1013,9 hPa 0,0 l/m 0 min 0 min 0 W/m 3,2 km/h (1 Bft) 95,74 %
26.07.2022 02:54 18,6 C 17,2 C 14,4 C 78 % 1014,0 hPa 0,0 l/m 0 min 0 min 0 W/m 3,2 km/h (1 Bft) 97,87 %
26.07.2022 02:56 18,6 C 17,2 C 14,4 C 79 % 1014,0 hPa 0,0 l/m 0 min 0 min 0 W/m 6,4 km/h (2 Bft) 95,74 %
26.07.2022 02:58 18,5 C 17,2 C 14,4 C 79 % 1014,0 hPa 0,0 l/m 0 min 0 min 0 W/m 16,1 km/h (3 Bft) 97,87 %
26.07.2022 03:00 18,4 C 17,2 C 14,4 C 79 % 1014,0 hPa 0,0 l/m 0 min 0 min 0 W/m 12,9 km/h (3 Bft) 100,00 %
26.07.2022 03:02 18,4 C 17,2 C 14,4 C 79 % 1014,0 hPa 0,0 l/m 0 min 0 min 0 W/m 3,2 km/h (1 Bft) 100,00 %
26.07.2022 03:04 18,4 C 17,2 C 14,4 C 79 % 1014,0 hPa 0,0 l/m 0 min 0 min 0 W/m 3,2 km/h (1 Bft) 100,00 %
26.07.2022 03:06 18,4 C 17,2 C 14,4 C 79 % 1014,0 hPa 0,0 l/m 0 min 0 min 0 W/m 3,2 km/h (1 Bft) 97,87 %
26.07.2022 03:08 18,3 C 17,2 C 14,4 C 79 % 1014,0 hPa 0,0 l/m 0 min 0 min 0 W/m 3,2 km/h (1 Bft) 97,87 %
26.07.2022 03:10 18,3 C 17,2 C 14,4 C 79 % 1014,0 hPa 0,0 l/m 0 min 0 min 0 W/m 3,2 km/h (1 Bft) 97,14 %
26.07.2022 03:12 18,3 C 17,2 C 13,9 C 79 % 1014,0 hPa 0,0 l/m 0 min 0 min 0 W/m 6,4 km/h (2 Bft) 100,00 %
26.07.2022 03:14 18,2 C 17,2 C 13,9 C 79 % 1014,0 hPa 0,0 l/m 0 min 0 min 0 W/m 3,2 km/h (1 Bft) 100,00 %
26.07.2022 03:16 18,2 C 17,2 C 13,9 C 79 % 1014,0 hPa 0,0 l/m 0 min 0 min 0 W/m 3,2 km/h (1 Bft) 97,87 %
26.07.2022 03:18 18,2 C 17,2 C 13,9 C 79 % 1014,0 hPa 0,0 l/m 0 min 0 min 0 W/m 6,4 km/h (2 Bft) 97,87 %
26.07.2022 03:20 18,1 C 17,2 C 13,9 C 80 % 1014,0 hPa 0,0 l/m 0 min 0 min 0 W/m 6,4 km/h (2 Bft) 97,83 %
26.07.2022 03:22 18,1 C 17,2 C 13,9 C 80 % 1013,9 hPa 0,0 l/m 0 min 0 min 0 W/m 6,4 km/h (2 Bft) 93,62 %
26.07.2022 03:24 18,1 C 17,2 C 13,9 C 80 % 1014,0 hPa 0,0 l/m 0 min 0 min 0 W/m 6,4 km/h (2 Bft) 97,87 %
26.07.2022 03:26 18,1 C 17,2 C 13,9 C 80 % 1014,0 hPa 0,0 l/m 0 min 0 min 0 W/m 6,4 km/h (2 Bft) 95,74 %
26.07.2022 03:28 18,1 C 17,2 C 14,4 C 80 % 1014,0 hPa 0,0 l/m 0 min 0 min 0 W/m 19,3 km/h (3 Bft) 97,87 %
26.07.2022 03:30 18,1 C 17,2 C 13,9 C 80 % 1014,0 hPa 0,0 l/m 0 min 0 min 0 W/m 12,9 km/h (3 Bft) 97,87 %
26.07.2022 03:32 18,1 C 17,2 C 14,4 C 80 % 1013,9 hPa 0,0 l/m 0 min 0 min 0 W/m 3,2 km/h (1 Bft) 97,83 %
26.07.2022 03:34 18,1 C 17,2 C 14,4 C 80 % 1014,0 hPa 0,0 l/m 0 min 0 min 0 W/m 9,7 km/h (2 Bft) 97,87 %
26.07.2022 03:36 18,1 C 17,2 C 14,4 C 80 % 1014,0 hPa 0,0 l/m 0 min 0 min 0 W/m 9,7 km/h (2 Bft) 97,87 %
26.07.2022 03:38 18,1 C 17,2 C 14,4 C 80 % 1014,0 hPa 0,0 l/m 0 min 0 min 0 W/m 19,3 km/h (3 Bft) 97,87 %
26.07.2022 03:40 18,1 C 17,2 C 14,4 C 80 % 1014,0 hPa 0,0 l/m 0 min 0 min 0 W/m 6,4 km/h (2 Bft) 97,87 %
26.07.2022 03:42 18,1 C 17,2 C 14,4 C 80 % 1014,0 hPa 0,0 l/m 0 min 0 min 0 W/m 9,7 km/h (2 Bft) 97,87 %
26.07.2022 03:44 18,2 C 17,2 C 14,4 C 80 % 1014,0 hPa 0,0 l/m 0 min 0 min 0 W/m 6,4 km/h (2 Bft) 97,83 %
26.07.2022 03:46 18,2 C 17,8 C 14,4 C 80 % 1014,1 hPa 0,0 l/m 0 min 0 min 0 W/m 6,4 km/h (2 Bft) 100,00 %
26.07.2022 03:48 18,2 C 17,2 C 14,4 C 80 % 1014,1 hPa 0,0 l/m 0 min 0 min 0 W/m 12,9 km/h (3 Bft) 97,87 %
26.07.2022 03:50 18,2 C 17,8 C 14,4 C 80 % 1014,0 hPa 0,0 l/m 0 min 0 min 0 W/m 6,4 km/h (2 Bft) 95,74 %
26.07.2022 03:52 18,2 C 17,8 C 14,4 C 80 % 1014,0 hPa 0,0 l/m 0 min 0 min 0 W/m 6,4 km/h (2 Bft) 95,74 %
26.07.2022 03:54 18,2 C 17,8 C 14,4 C 80 % 1014,0 hPa 0,0 l/m 0 min 0 min 0 W/m 9,7 km/h (2 Bft) 97,87 %
26.07.2022 03:56 18,3 C 17,8 C 14,4 C 80 % 1014,0 hPa 0,0 l/m 0 min 0 min 0 W/m 9,7 km/h (2 Bft) 97,83 %
26.07.2022 03:58 18,3 C 17,8 C 14,4 C 80 % 1014,0 hPa 0,0 l/m 0 min 0 min 0 W/m 6,4 km/h (2 Bft) 95,74 %
26.07.2022 04:00 18,3 C 17,8 C 14,4 C 80 % 1014,0 hPa 0,0 l/m 0 min 0 min 0 W/m 6,4 km/h (2 Bft) 97,87 %
26.07.2022 04:02 18,3 C 17,8 C 14,4 C 80 % 1014,0 hPa 0,0 l/m 0 min 0 min 0 W/m 6,4 km/h (2 Bft) 100,00 %
26.07.2022 04:04 18,3 C 17,8 C 14,4 C 80 % 1014,0 hPa 0,0 l/m 0 min 0 min 0 W/m 9,7 km/h (2 Bft) 95,74 %
26.07.2022 04:06 18,3 C 17,2 C 14,4 C 80 % 1014,0 hPa 0,0 l/m 0 min 0 min 0 W/m 19,3 km/h (3 Bft) 97,87 %
26.07.2022 04:08 18,3 C 17,8 C 14,4 C 80 % 1014,0 hPa 0,0 l/m 0 min 0 min 0 W/m 6,4 km/h (2 Bft) 95,65 %
26.07.2022 04:10 18,3 C 17,8 C 14,4 C 80 % 1014,0 hPa 0,0 l/m 0 min 0 min 0 W/m 6,4 km/h (2 Bft) 100,00 %
26.07.2022 04:16 18,3 C 17,2 C 14,4 C 80 % 1014,0 hPa 0,0 l/m 0 min 0 min 0 W/m 6,4 km/h (2 Bft) 100,00 %
26.07.2022 04:21 18,3 C 17,2 C 14,4 C 80 % 1014,1 hPa 0,0 l/m 0 min 0 min 0 W/m 9,7 km/h (2 Bft) 97,56 %
26.07.2022 04:22 18,3 C 17,2 C 14,4 C 80 % 1014,1 hPa 0,0 l/m 0 min 0 min 0 W/m 3,2 km/h (1 Bft) 95,65 %
26.07.2022 04:24 18,3 C 17,2 C 14,4 C 80 % 1014,1 hPa 0,0 l/m 0 min 0 min 0 W/m 6,4 km/h (2 Bft) 95,74 %
26.07.2022 04:26 18,2 C 17,2 C 14,4 C 80 % 1014,1 hPa 0,0 l/m 0 min 0 min 0 W/m 12,9 km/h (3 Bft) 95,74 %
26.07.2022 04:28 18,2 C 17,2 C 13,9 C 80 % 1014,0 hPa 0,0 l/m 0 min 0 min 0 W/m 6,4 km/h (2 Bft) 97,87 %
26.07.2022 04:30 18,2 C 17,2 C 13,9 C 80 % 1014,0 hPa 0,0 l/m 0 min 0 min 0 W/m 12,9 km/h (3 Bft) 97,87 %
26.07.2022 04:32 18,1 C 17,2 C 13,9 C 81 % 1014,0 hPa 0,0 l/m 0 min 0 min 0 W/m 6,4 km/h (2 Bft) 95,65 %
26.07.2022 04:34 18,1 C 17,2 C 13,9 C 81 % 1014,0 hPa 0,0 l/m 0 min 0 min 0 W/m 6,4 km/h (2 Bft) 100,00 %
26.07.2022 04:36 18,1 C 17,2 C 13,9 C 81 % 1014,1 hPa 0,0 l/m 0 min 0 min 0 W/m 6,4 km/h (2 Bft) 97,87 %
26.07.2022 04:38 18,1 C 17,2 C 13,9 C 81 % 1014,1 hPa 0,0 l/m 0 min 0 min 0 W/m 12,9 km/h (3 Bft) 100,00 %
26.07.2022 04:40 18,1 C 17,2 C 13,9 C 81 % 1014,1 hPa 0,0 l/m 0 min 0 min 0 W/m 9,7 km/h (2 Bft) 100,00 %
26.07.2022 04:42 18,0 C 17,2 C 13,9 C 81 % 1014,2 hPa 0,0 l/m 0 min 0 min 0 W/m 6,4 km/h (2 Bft) 97,87 %
26.07.2022 04:44 18,0 C 17,2 C 13,9 C 81 % 1014,2 hPa 0,0 l/m 0 min 0 min 0 W/m 6,4 km/h (2 Bft) 100,00 %
26.07.2022 04:46 18,0 C 17,2 C 13,9 C 81 % 1014,2 hPa 0,0 l/m 0 min 0 min 0 W/m 12,9 km/h (3 Bft) 95,74 %
26.07.2022 04:48 18,0 C 17,2 C 13,9 C 81 % 1014,2 hPa 0,0 l/m 0 min 0 min 0 W/m 6,4 km/h (2 Bft) 97,87 %
26.07.2022 04:50 18,0 C 17,2 C 13,9 C 81 % 1014,2 hPa 0,0 l/m 0 min 0 min 0 W/m 6,4 km/h (2 Bft) 97,87 %
26.07.2022 04:52 18,0 C 17,2 C 13,9 C 81 % 1014,2 hPa 0,0 l/m 0 min 0 min 0 W/m 12,9 km/h (3 Bft) 97,87 %
26.07.2022 04:54 18,1 C 17,2 C 13,9 C 81 % 1014,2 hPa 0,0 l/m 0 min 0 min 0 W/m 3,2 km/h (1 Bft) 97,87 %
26.07.2022 04:56 18,1 C 17,2 C 13,9 C 81 % 1014,2 hPa 0,0 l/m 0 min 0 min 0 W/m 9,7 km/h (2 Bft) 97,83 %
26.07.2022 04:58 18,1 C 17,2 C 13,9 C 81 % 1014,1 hPa 0,0 l/m 0 min 0 min 0 W/m 12,9 km/h (3 Bft) 100,00 %
26.07.2022 05:00 18,1 C 17,2 C 13,9 C 82 % 1014,2 hPa 0,0 l/m 0 min 0 min 0 W/m 12,9 km/h (3 Bft) 100,00 %
26.07.2022 05:02 18,1 C 17,2 C 13,9 C 82 % 1014,3 hPa 0,0 l/m 0 min 0 min 0 W/m 12,9 km/h (3 Bft) 100,00 %
26.07.2022 05:04 18,0 C 17,2 C 13,9 C 82 % 1014,3 hPa 0,0 l/m 0 min 0 min 0 W/m 9,7 km/h (2 Bft) 95,74 %
26.07.2022 05:06 18,0 C 17,2 C 13,9 C 82 % 1014,3 hPa 0,0 l/m 0 min 0 min 0 W/m 6,4 km/h (2 Bft) 95,65 %
26.07.2022 05:08 18,0 C 17,2 C 13,9 C 82 % 1014,3 hPa 0,0 l/m 0 min 0 min 0 W/m 12,9 km/h (3 Bft) 95,74 %
26.07.2022 05:10 18,0 C 17,2 C 13,9 C 82 % 1014,3 hPa 0,0 l/m 0 min 0 min 0 W/m 12,9 km/h (3 Bft) 95,74 %
26.07.2022 05:12 18,0 C 17,2 C 13,9 C 82 % 1014,3 hPa 0,0 l/m 0 min 0 min 0 W/m 12,9 km/h (3 Bft) 95,74 %
26.07.2022 05:14 18,0 C 17,2 C 13,9 C 82 % 1014,3 hPa 0,0 l/m 0 min 0 min 0 W/m 12,9 km/h (3 Bft) 95,74 %
26.07.2022 05:16 18,0 C 17,2 C 13,9 C 82 % 1014,3 hPa 0,0 l/m 0 min 0 min 0 W/m 3,2 km/h (1 Bft) 95,74 %
26.07.2022 05:18 18,0 C 17,2 C 13,9 C 82 % 1014,3 hPa 0,0 l/m 0 min 0 min 0 W/m 9,7 km/h (2 Bft) 95,74 %
26.07.2022 05:20 18,0 C 17,2 C 13,9 C 82 % 1014,3 hPa 0,0 l/m 0 min 0 min 0 W/m 16,1 km/h (3 Bft) 95,65 %
26.07.2022 05:22 18,0 C 17,2 C 13,9 C 82 % 1014,3 hPa 0,0 l/m 0 min 0 min 0 W/m 12,9 km/h (3 Bft) 95,74 %
26.07.2022 05:24 18,0 C 17,2 C 13,9 C 82 % 1014,4 hPa 0,0 l/m 0 min 0 min 0 W/m 9,7 km/h (2 Bft) 97,87 %
26.07.2022 05:26 18,0 C 17,2 C 13,9 C 82 % 1014,4 hPa 0,0 l/m 0 min 0 min 0 W/m 6,4 km/h (2 Bft) 93,62 %
26.07.2022 05:28 17,9 C 17,2 C 13,9 C 82 % 1014,4 hPa 0,0 l/m 0 min 0 min 0 W/m 22,5 km/h (4 Bft) 93,62 %
26.07.2022 05:30 17,9 C 17,2 C 13,9 C 83 % 1014,4 hPa 0,0 l/m 0 min 0 min 0 W/m 6,4 km/h (2 Bft) 95,74 %
26.07.2022 05:32 17,9 C 17,2 C 13,9 C 83 % 1014,4 hPa 0,0 l/m 0 min 0 min 0 W/m 16,1 km/h (3 Bft) 95,65 %
26.07.2022 05:34 17,9 C 17,2 C 13,9 C 83 % 1014,4 hPa 0,0 l/m 0 min 0 min 0 W/m 16,1 km/h (3 Bft) 95,74 %
26.07.2022 05:36 17,9 C 17,2 C 13,9 C 83 % 1014,4 hPa 0,0 l/m 0 min 0 min 0 W/m 9,7 km/h (2 Bft) 93,62 %
26.07.2022 05:38 17,9 C 17,2 C 13,9 C 83 % 1014,5 hPa 0,0 l/m 0 min 0 min 0 W/m 12,9 km/h (3 Bft) 95,74 %
26.07.2022 05:40 17,9 C 17,2 C 13,9 C 83 % 1014,5 hPa 0,0 l/m 0 min 0 min 0 W/m 9,7 km/h (2 Bft) 93,62 %
26.07.2022 05:42 17,9 C 17,2 C 13,9 C 83 % 1014,5 hPa 0,0 l/m 0 min 0 min 0 W/m 12,9 km/h (3 Bft) 97,83 %
26.07.2022 05:44 17,9 C 17,2 C 13,9 C 83 % 1014,5 hPa 0,0 l/m 0 min 0 min 0 W/m 9,7 km/h (2 Bft) 97,87 %
26.07.2022 05:46 17,9 C 17,2 C 13,9 C 83 % 1014,5 hPa 0,0 l/m 0 min 0 min 0 W/m 12,9 km/h (3 Bft) 97,87 %
26.07.2022 05:48 17,9 C 17,2 C 13,9 C 83 % 1014,5 hPa 0,0 l/m 0 min 0 min 0 W/m 16,1 km/h (3 Bft) 97,87 %
26.07.2022 05:50 17,9 C 17,2 C 13,9 C 83 % 1014,5 hPa 0,0 l/m 0 min 0 min 0 W/m 9,7 km/h (2 Bft) 97,87 %
26.07.2022 05:52 17,9 C 17,2 C 13,9 C 83 % 1014,5 hPa 0,0 l/m 0 min 0 min 0 W/m 6,4 km/h (2 Bft) 97,87 %
26.07.2022 05:54 17,9 C 17,2 C 13,9 C 83 % 1014,6 hPa 0,0 l/m 0 min 0 min 0 W/m 12,9 km/h (3 Bft) 100,00 %
26.07.2022 05:56 17,9 C 17,2 C 13,9 C 83 % 1014,6 hPa 0,0 l/m 0 min 0 min 0 W/m 12,9 km/h (3 Bft) 100,00 %
26.07.2022 05:58 17,8 C 17,2 C 13,9 C 84 % 1014,6 hPa 0,0 l/m 0 min 0 min 0 W/m 6,4 km/h (2 Bft) 100,00 %
26.07.2022 06:00 17,9 C 17,2 C 13,9 C 84 % 1014,6 hPa 0,0 l/m 0 min 0 min 0 W/m 6,4 km/h (2 Bft) 100,00 %
26.07.2022 06:02 17,9 C 17,2 C 13,9 C 84 % 1014,7 hPa 0,0 l/m 0 min 0 min 0 W/m 16,1 km/h (3 Bft) 97,87 %
26.07.2022 06:04 17,9 C 17,2 C 13,9 C 84 % 1014,7 hPa 0,0 l/m 0 min 0 min 0 W/m 6,4 km/h (2 Bft) 100,00 %
26.07.2022 06:08 17,8 C 17,2 C 13,9 C 84 % 1014,6 hPa 0,0 l/m 0 min 0 min 0 W/m 19,3 km/h (3 Bft) 100,00 %
26.07.2022 06:10 17,8 C 17,2 C 13,9 C 84 % 1014,7 hPa 0,0 l/m 0 min 0 min 0 W/m 16,1 km/h (3 Bft) 100,00 %
26.07.2022 06:12 17,8 C 17,2 C 13,9 C 84 % 1014,6 hPa 0,0 l/m 0 min 0 min 0 W/m 16,1 km/h (3 Bft) 100,00 %
26.07.2022 06:14 17,8 C 16,7 C 13,9 C 84 % 1014,7 hPa 0,0 l/m 0 min 0 min 0 W/m 16,1 km/h (3 Bft) 100,00 %
26.07.2022 06:16 17,8 C 16,7 C 13,9 C 84 % 1014,7 hPa 0,0 l/m 0 min 0 min 0 W/m 16,1 km/h (3 Bft) 100,00 %
26.07.2022 06:18 17,8 C 16,7 C 13,9 C 84 % 1014,7 hPa 0,0 l/m 0 min 0 min 4 W/m 9,7 km/h (2 Bft) 100,00 %
26.07.2022 06:20 17,8 C 16,7 C 13,9 C 84 % 1014,7 hPa 0,0 l/m 0 min 0 min 5 W/m 6,4 km/h (2 Bft) 100,00 %
26.07.2022 06:22 17,8 C 16,7 C 13,9 C 84 % 1014,7 hPa 0,0 l/m 0 min 0 min 6 W/m 9,7 km/h (2 Bft) 100,00 %
26.07.2022 06:24 17,8 C 16,7 C 13,9 C 84 % 1014,7 hPa 0,0 l/m 0 min 0 min 7 W/m 6,4 km/h (2 Bft) 100,00 %
26.07.2022 06:26 17,8 C 16,7 C 13,9 C 84 % 1014,7 hPa 0,0 l/m 0 min 0 min 7 W/m 12,9 km/h (3 Bft) 100,00 %
26.07.2022 06:28 17,7 C 16,7 C 13,9 C 84 % 1014,7 hPa 0,0 l/m 0 min 0 min 9 W/m 9,7 km/h (2 Bft) 100,00 %
26.07.2022 06:30 17,7 C 16,7 C 13,9 C 85 % 1014,8 hPa 0,0 l/m 0 min 0 min 11 W/m 6,4 km/h (2 Bft) 100,00 %
26.07.2022 06:32 17,7 C 16,7 C 13,9 C 85 % 1014,8 hPa 0,0 l/m 0 min 0 min 11 W/m 16,1 km/h (3 Bft) 100,00 %
26.07.2022 06:34 17,7 C 16,7 C 13,9 C 85 % 1014,8 hPa 0,0 l/m 0 min 0 min 12 W/m 3,2 km/h (1 Bft) 100,00 %
26.07.2022 06:36 17,7 C 17,2 C 13,9 C 85 % 1014,9 hPa 0,0 l/m 0 min 0 min 14 W/m 3,2 km/h (1 Bft) 100,00 %
26.07.2022 06:38 17,8 C 17,2 C 13,9 C 85 % 1014,8 hPa 0,0 l/m 0 min 0 min 14 W/m 12,9 km/h (3 Bft) 100,00 %
26.07.2022 06:40 17,8 C 17,2 C 13,9 C 85 % 1014,8 hPa 0,0 l/m 0 min 0 min 16 W/m 6,4 km/h (2 Bft) 97,87 %
26.07.2022 06:42 17,7 C 17,2 C 13,9 C 85 % 1014,8 hPa 0,0 l/m 0 min 0 min 16 W/m 12,9 km/h (3 Bft) 97,83 %
26.07.2022 06:44 17,7 C 17,2 C 13,9 C 85 % 1014,9 hPa 0,0 l/m 0 min 0 min 17 W/m 3,2 km/h (1 Bft) 97,87 %
26.07.2022 06:46 17,7 C 17,2 C 13,9 C 85 % 1014,8 hPa 0,0 l/m 0 min 0 min 18 W/m 12,9 km/h (3 Bft) 97,87 %
26.07.2022 06:48 17,7 C 17,2 C 13,9 C 85 % 1014,8 hPa 0,0 l/m 0 min 0 min 19 W/m 12,9 km/h (3 Bft) 97,87 %
26.07.2022 06:50 17,7 C 17,2 C 13,9 C 85 % 1014,8 hPa 0,0 l/m 0 min 0 min 22 W/m 6,4 km/h (2 Bft) 95,74 %
26.07.2022 06:52 17,7 C 17,2 C 13,9 C 85 % 1014,9 hPa 0,0 l/m 0 min 0 min 24 W/m 16,1 km/h (3 Bft) 97,87 %
26.07.2022 06:54 17,7 C 17,2 C 13,9 C 85 % 1014,8 hPa 0,0 l/m 0 min 0 min 26 W/m 9,7 km/h (2 Bft) 97,87 %
26.07.2022 06:56 17,7 C 17,2 C 13,9 C 85 % 1014,9 hPa 0,0 l/m 0 min 0 min 28 W/m 16,1 km/h (3 Bft) 95,65 %
26.07.2022 06:58 17,7 C 17,2 C 13,9 C 85 % 1014,9 hPa 0,0 l/m 0 min 0 min 30 W/m 6,4 km/h (2 Bft) 97,87 %
26.07.2022 07:00 17,7 C 17,2 C 13,9 C 85 % 1014,9 hPa 0,0 l/m 0 min 0 min 32 W/m 6,4 km/h (2 Bft) 95,74 %
26.07.2022 07:02 17,7 C 17,2 C 13,9 C 85 % 1014,9 hPa 0,0 l/m 0 min 0 min 32 W/m 16,1 km/h (3 Bft) 95,74 %
26.07.2022 07:04 17,7 C 17,2 C 13,9 C 86 % 1015,0 hPa 0,0 l/m 0 min 0 min 33 W/m 12,9 km/h (3 Bft) 95,74 %
26.07.2022 07:06 17,7 C 17,2 C 13,9 C 86 % 1015,0 hPa 0,0 l/m 0 min 0 min 33 W/m 6,4 km/h (2 Bft) 95,65 %
26.07.2022 07:08 17,8 C 17,2 C 13,9 C 86 % 1015,0 hPa 0,0 l/m 0 min 0 min 34 W/m 6,4 km/h (2 Bft) 91,49 %
26.07.2022 07:10 17,8 C 17,2 C 13,9 C 85 % 1015,0 hPa 0,0 l/m 0 min 0 min 35 W/m 16,1 km/h (3 Bft) 95,74 %
26.07.2022 07:12 17,8 C 17,2 C 13,9 C 85 % 1015,0 hPa 0,0 l/m 0 min 0 min 37 W/m 9,7 km/h (2 Bft) 97,14 %
26.07.2022 07:14 17,8 C 17,2 C 13,9 C 86 % 1015,0 hPa 0,0 l/m 0 min 0 min 38 W/m 9,7 km/h (2 Bft) 93,62 %
26.07.2022 07:16 17,8 C 17,2 C 13,9 C 85 % 1015,0 hPa 0,0 l/m 0 min 0 min 39 W/m 6,4 km/h (2 Bft) 93,22 %
26.07.2022 07:18 17,8 C 17,2 C 13,9 C 86 % 1015,0 hPa 0,0 l/m 0 min 0 min 40 W/m 12,9 km/h (3 Bft) 95,65 %
26.07.2022 07:20 17,8 C 17,2 C 13,9 C 86 % 1015,0 hPa 0,0 l/m 0 min 0 min 41 W/m 12,9 km/h (3 Bft) 95,74 %
26.07.2022 07:22 17,8 C 17,2 C 13,9 C 86 % 1015,0 hPa 0,0 l/m 0 min 0 min 44 W/m 9,7 km/h (2 Bft) 95,74 %
26.07.2022 07:24 17,8 C 17,2 C 13,9 C 86 % 1015,0 hPa 0,0 l/m 0 min 0 min 44 W/m 12,9 km/h (3 Bft) 91,49 %
26.07.2022 07:26 17,9 C 17,2 C 13,9 C 86 % 1015,0 hPa 0,0 l/m 0 min 0 min 44 W/m 12,9 km/h (3 Bft) 95,74 %
26.07.2022 07:28 17,9 C 17,2 C 13,9 C 86 % 1015,0 hPa 0,0 l/m 0 min 0 min 43 W/m 6,4 km/h (2 Bft) 97,87 %
26.07.2022 07:30 17,9 C 17,2 C 13,9 C 86 % 1015,0 hPa 0,0 l/m 0 min 0 min 45 W/m 6,4 km/h (2 Bft) 100,00 %
26.07.2022 07:32 17,9 C 17,2 C 13,9 C 86 % 1015,0 hPa 0,0 l/m 0 min 0 min 47 W/m 9,7 km/h (2 Bft) 100,00 %
26.07.2022 07:34 17,9 C 17,2 C 14,4 C 86 % 1015,0 hPa 0,0 l/m 0 min 0 min 51 W/m 9,7 km/h (2 Bft) 100,00 %
26.07.2022 07:36 17,9 C 17,2 C 14,4 C 86 % 1014,9 hPa 0,0 l/m 0 min 0 min 53 W/m 6,4 km/h (2 Bft) 97,87 %
26.07.2022 07:38 17,9 C 17,2 C 14,4 C 86 % 1015,0 hPa 0,0 l/m 0 min 0 min 53 W/m 12,9 km/h (3 Bft) 100,00 %
26.07.2022 07:40 17,9 C 17,2 C 14,4 C 86 % 1015,0 hPa 0,0 l/m 0 min 0 min 49 W/m 6,4 km/h (2 Bft) 97,87 %
26.07.2022 07:42 18,0 C 17,2 C 14,4 C 86 % 1015,0 hPa 0,0 l/m 0 min 0 min 47 W/m 9,7 km/h (2 Bft) 97,83 %
26.07.2022 07:44 18,0 C 17,2 C 14,4 C 86 % 1015,0 hPa 0,0 l/m 0 min 0 min 47 W/m 9,7 km/h (2 Bft) 100,00 %
26.07.2022 07:46 18,0 C 17,2 C 14,4 C 86 % 1015,0 hPa 0,0 l/m 0 min 0 min 47 W/m 12,9 km/h (3 Bft) 100,00 %
26.07.2022 07:48 18,0 C 17,2 C 14,4 C 86 % 1015,0 hPa 0,0 l/m 0 min 0 min 50 W/m 6,4 km/h (2 Bft) 100,00 %
26.07.2022 07:50 18,0 C 17,2 C 14,4 C 86 % 1015,0 hPa 0,0 l/m 0 min 0 min 54 W/m 6,4 km/h (2 Bft) 97,87 %
26.07.2022 07:52 18,0 C 17,2 C 13,9 C 86 % 1014,9 hPa 0,0 l/m 0 min 0 min 58 W/m 6,4 km/h (2 Bft) 97,87 %
26.07.2022 07:54 18,0 C 17,2 C 13,9 C 86 % 1015,0 hPa 0,0 l/m 0 min 0 min 61 W/m 6,4 km/h (2 Bft) 100,00 %
26.07.2022 07:56 18,0 C 17,2 C 14,4 C 86 % 1015,0 hPa 0,0 l/m 0 min 0 min 62 W/m 6,4 km/h (2 Bft) 100,00 %
26.07.2022 07:58 18,0 C 17,2 C 14,4 C 86 % 1015,0 hPa 0,0 l/m 0 min 0 min 60 W/m 6,4 km/h (2 Bft) 100,00 %
26.07.2022 08:00 18,1 C 17,2 C 14,4 C 86 % 1015,0 hPa 0,0 l/m 0 min 0 min 60 W/m 6,4 km/h (2 Bft) 97,87 %
26.07.2022 08:02 18,1 C 17,8 C 14,4 C 86 % 1015,1 hPa 0,0 l/m 0 min 0 min 60 W/m 12,9 km/h (3 Bft) 97,87 %
26.07.2022 08:04 18,1 C 17,8 C 14,4 C 86 % 1015,1 hPa 0,0 l/m 0 min 0 min 60 W/m 6,4 km/h (2 Bft) 97,87 %
26.07.2022 08:06 18,1 C 17,8 C 14,4 C 86 % 1015,1 hPa 0,0 l/m 0 min 0 min 62 W/m 6,4 km/h (2 Bft) 97,83 %
26.07.2022 08:08 18,1 C 17,8 C 14,4 C 86 % 1015,1 hPa 0,0 l/m 0 min 0 min 65 W/m 3,2 km/h (1 Bft) 97,87 %
26.07.2022 08:10 18,1 C 17,8 C 14,4 C 86 % 1015,1 hPa 0,0 l/m 0 min 0 min 70 W/m 12,9 km/h (3 Bft) 97,87 %
26.07.2022 08:12 18,1 C 17,8 C 14,4 C 86 % 1015,1 hPa 0,0 l/m 0 min 0 min 76 W/m 12,9 km/h (3 Bft) 97,87 %
26.07.2022 08:14 18,1 C 17,8 C 14,4 C 86 % 1015,1 hPa 0,0 l/m 0 min 0 min 82 W/m 6,4 km/h (2 Bft) 97,87 %
26.07.2022 08:16 18,1 C 17,8 C 14,4 C 86 % 1015,1 hPa 0,0 l/m 0 min 0 min 89 W/m 9,7 km/h (2 Bft) 97,87 %
26.07.2022 08:18 18,2 C 17,8 C 14,4 C 86 % 1015,2 hPa 0,0 l/m 0 min 0 min 89 W/m 6,4 km/h (2 Bft) 97,83 %
26.07.2022 08:20 18,2 C 17,8 C 14,4 C 86 % 1015,2 hPa 0,0 l/m 0 min 0 min 87 W/m 9,7 km/h (2 Bft) 97,22 %
26.07.2022 08:22 18,2 C 17,8 C 14,4 C 86 % 1015,2 hPa 0,0 l/m 0 min 0 min 87 W/m 6,4 km/h (2 Bft) 97,83 %
26.07.2022 08:24 18,2 C 17,8 C 14,4 C 86 % 1015,2 hPa 0,0 l/m 0 min 0 min 91 W/m 6,4 km/h (2 Bft) 97,87 %
26.07.2022 08:26 18,2 C 17,8 C 14,4 C 86 % 1015,2 hPa 0,0 l/m 0 min 0 min 97 W/m 6,4 km/h (2 Bft) 96,61 %
26.07.2022 08:28 18,2 C 17,8 C 14,4 C 86 % 1015,3 hPa 0,0 l/m 0 min 0 min 105 W/m 12,9 km/h (3 Bft) 97,87 %
26.07.2022 08:30 18,3 C 17,8 C 14,4 C 86 % 1015,2 hPa 0,0 l/m 0 min 0 min 116 W/m 6,4 km/h (2 Bft) 95,65 %
26.07.2022 08:32 18,3 C 17,8 C 15,0 C 86 % 1015,3 hPa 0,0 l/m 0 min 0 min 121 W/m 3,2 km/h (1 Bft) 97,87 %
26.07.2022 08:34 18,3 C 17,8 C 15,0 C 86 % 1015,4 hPa 0,0 l/m 0 min 0 min 127 W/m 6,4 km/h (2 Bft) 97,14 %
26.07.2022 08:36 18,3 C 17,8 C 15,0 C 86 % 1015,3 hPa 0,0 l/m 0 min 0 min 129 W/m 9,7 km/h (2 Bft) 98,31 %
26.07.2022 08:38 18,3 C 18,3 C 15,0 C 86 % 1015,3 hPa 0,0 l/m 0 min 0 min 135 W/m 12,9 km/h (3 Bft) 97,87 %
26.07.2022 08:40 18,4 C 18,3 C 15,0 C 86 % 1015,4 hPa 0,0 l/m 0 min 0 min 140 W/m 6,4 km/h (2 Bft) 97,87 %
26.07.2022 08:42 18,4 C 18,3 C 15,0 C 85 % 1015,5 hPa 0,0 l/m 0 min 0 min 150 W/m 12,9 km/h (3 Bft) 97,14 %
26.07.2022 08:44 18,4 C 18,3 C 15,0 C 86 % 1015,5 hPa 0,0 l/m 0 min 0 min 156 W/m 12,9 km/h (3 Bft) 97,87 %
26.07.2022 08:46 18,5 C 18,3 C 15,0 C 85 % 1015,5 hPa 0,0 l/m 0 min 0 min 156 W/m 16,1 km/h (3 Bft) 98,28 %
26.07.2022 08:48 18,6 C 18,3 C 15,0 C 85 % 1015,5 hPa 0,0 l/m 0 min 0 min 157 W/m 9,7 km/h (2 Bft) 97,87 %
26.07.2022 08:50 18,6 C 18,3 C 15,0 C 85 % 1015,5 hPa 0,0 l/m 0 min 0 min 168 W/m 12,9 km/h (3 Bft) 97,87 %
26.07.2022 08:52 18,6 C 18,3 C 15,0 C 85 % 1015,6 hPa 0,0 l/m 0 min 0 min 184 W/m 16,1 km/h (3 Bft) 100,00 %
26.07.2022 08:54 18,6 C 18,3 C 15,0 C 85 % 1015,5 hPa 0,0 l/m 0 min 0 min 210 W/m 19,3 km/h (3 Bft) 97,87 %
26.07.2022 08:56 18,7 C 18,9 C 15,6 C 85 % 1015,6 hPa 0,0 l/m 2 min 0 min 235 W/m 12,9 km/h (3 Bft) 95,74 %
26.07.2022 08:58 18,7 C 18,9 C 15,6 C 85 % 1015,5 hPa 0,0 l/m 2 min 0 min 225 W/m 22,5 km/h (4 Bft) 97,83 %
26.07.2022 09:00 18,8 C 18,9 C 15,6 C 85 % 1015,5 hPa 0,0 l/m 0 min 0 min 203 W/m 12,9 km/h (3 Bft) 96,61 %
26.07.2022 09:02 18,8 C 18,9 C 15,6 C 85 % 1015,5 hPa 0,0 l/m 0 min 0 min 188 W/m 12,9 km/h (3 Bft) 94,29 %
26.07.2022 09:04 18,8 C 18,9 C 15,6 C 85 % 1015,5 hPa 0,0 l/m 0 min 0 min 181 W/m 16,1 km/h (3 Bft) 97,87 %
26.07.2022 09:06 18,9 C 18,9 C 15,6 C 85 % 1015,5 hPa 0,0 l/m 0 min 0 min 185 W/m 16,1 km/h (3 Bft) 96,55 %
26.07.2022 09:08 18,9 C 18,9 C 15,6 C 85 % 1015,6 hPa 0,0 l/m 0 min 0 min 181 W/m 16,1 km/h (3 Bft) 97,87 %
26.07.2022 09:10 18,9 C 18,9 C 15,6 C 85 % 1015,6 hPa 0,0 l/m 0 min 0 min 188 W/m 16,1 km/h (3 Bft) 97,14 %
26.07.2022 09:12 19,0 C 18,9 C 15,6 C 85 % 1015,6 hPa 0,0 l/m 0 min 0 min 193 W/m 16,1 km/h (3 Bft) 97,87 %
26.07.2022 09:14 19,1 C 18,9 C 15,6 C 85 % 1015,6 hPa 0,0 l/m 0 min 0 min 171 W/m 12,9 km/h (3 Bft) 97,87 %
26.07.2022 09:16 19,1 C 18,9 C 15,6 C 84 % 1015,6 hPa 0,0 l/m 0 min 0 min 176 W/m 12,9 km/h (3 Bft) 95,74 %
26.07.2022 09:18 19,1 C 19,4 C 15,6 C 84 % 1015,6 hPa 0,0 l/m 0 min 0 min 183 W/m 6,4 km/h (2 Bft) 97,87 %
26.07.2022 09:20 19,2 C 19,4 C 16,1 C 84 % 1015,6 hPa 0,0 l/m 0 min 0 min 180 W/m 19,3 km/h (3 Bft) 97,87 %
26.07.2022 09:22 19,2 C 19,4 C 16,1 C 84 % 1015,6 hPa 0,0 l/m 0 min 0 min 227 W/m 9,7 km/h (2 Bft) 97,83 %
26.07.2022 09:24 19,3 C 19,4 C 16,1 C 84 % 1015,7 hPa 0,0 l/m 0 min 0 min 181 W/m 6,4 km/h (2 Bft) 100,00 %
26.07.2022 09:26 19,3 C 19,4 C 15,6 C 84 % 1015,7 hPa 0,0 l/m 0 min 0 min 160 W/m 12,9 km/h (3 Bft) 96,23 %
26.07.2022 09:28 19,3 C 19,4 C 15,6 C 84 % 1015,7 hPa 0,0 l/m 0 min 0 min 171 W/m 12,9 km/h (3 Bft) 92,00 %
26.07.2022 09:30 19,3 C 21,1 C 16,1 C 84 % 1015,7 hPa 0,0 l/m 0 min 0 min 249 W/m 12,9 km/h (3 Bft) 100,00 %
26.07.2022 09:32 19,4 C 21,7 C 16,7 C 84 % 1015,8 hPa 0,0 l/m 2 min 0 min 416 W/m 6,4 km/h (2 Bft) 97,14 %
26.07.2022 09:34 19,5 C 21,7 C 16,7 C 84 % 1015,8 hPa 0,0 l/m 0 min 0 min 192 W/m 12,9 km/h (3 Bft) 98,36 %
26.07.2022 09:36 19,6 C 21,1 C 16,7 C 83 % 1015,8 hPa 0,0 l/m 0 min 0 min 202 W/m 19,3 km/h (3 Bft) 97,87 %
26.07.2022 09:38 19,7 C 21,1 C 16,7 C 83 % 1015,8 hPa 0,0 l/m 2 min 0 min 411 W/m 16,1 km/h (3 Bft) 97,87 %
26.07.2022 09:40 19,7 C 21,7 C 16,7 C 83 % 1015,8 hPa 0,0 l/m 2 min 0 min 448 W/m 12,9 km/h (3 Bft) 97,87 %
26.07.2022 09:42 19,8 C 22,2 C 17,2 C 83 % 1015,8 hPa 0,0 l/m 2 min 0 min 522 W/m 6,4 km/h (2 Bft) 94,29 %
26.07.2022 09:44 19,8 C 22,8 C 17,8 C 82 % 1015,8 hPa 0,0 l/m 2 min 0 min 561 W/m 12,9 km/h (3 Bft) 98,11 %
26.07.2022 09:46 19,9 C 23,3 C 17,8 C 82 % 1015,9 hPa 0,0 l/m 2 min 0 min 556 W/m 12,9 km/h (3 Bft) 95,65 %
26.07.2022 09:48 20,1 C 22,2 C 17,8 C 82 % 1015,9 hPa 0,0 l/m 2 min 0 min 435 W/m 16,1 km/h (3 Bft) 97,87 %
26.07.2022 09:50 20,1 C 22,8 C 17,8 C 82 % 1015,8 hPa 0,0 l/m 0 min 0 min 190 W/m 9,7 km/h (2 Bft) 95,74 %
26.07.2022 09:52 20,2 C 22,2 C 17,8 C 81 % 1015,9 hPa 0,0 l/m 0 min 0 min 190 W/m 12,9 km/h (3 Bft) 97,87 %
26.07.2022 09:54 20,3 C 22,2 C 17,8 C 81 % 1015,8 hPa 0,0 l/m 0 min 0 min 249 W/m 16,1 km/h (3 Bft) 97,87 %
26.07.2022 09:56 20,4 C 22,8 C 17,8 C 81 % 1015,8 hPa 0,0 l/m 2 min 0 min 408 W/m 6,4 km/h (2 Bft) 97,87 %
26.07.2022 10:00 20,6 C 22,2 C 17,8 C 81 % 1015,9 hPa 0,0 l/m 4 min 0 min 318 W/m 12,9 km/h (3 Bft) 97,87 %
26.07.2022 10:02 20,7 C 21,7 C 17,8 C 79 % 1015,9 hPa 0,0 l/m 0 min 0 min 229 W/m 12,9 km/h (3 Bft) 97,83 %
26.07.2022 10:04 20,7 C 22,2 C 17,8 C 79 % 1015,9 hPa 0,0 l/m 0 min 0 min 290 W/m 12,9 km/h (3 Bft) 95,74 %
26.07.2022 10:06 20,7 C 22,8 C 17,8 C 80 % 1015,9 hPa 0,0 l/m 2 min 0 min 649 W/m 6,4 km/h (2 Bft) 100,00 %
26.07.2022 10:08 20,8 C 22,8 C 17,8 C 80 % 1016,0 hPa 0,0 l/m 2 min 0 min 649 W/m 6,4 km/h (2 Bft) 97,87 %
26.07.2022 10:10 21,0 C 22,8 C 17,8 C 80 % 1016,0 hPa 0,0 l/m 2 min 0 min 649 W/m 12,9 km/h (3 Bft) 100,00 %
26.07.2022 10:12 21,1 C 23,3 C 18,3 C 79 % 1016,0 hPa 0,0 l/m 2 min 0 min 461 W/m 6,4 km/h (2 Bft) 100,00 %
26.07.2022 10:14 21,3 C 23,9 C 18,3 C 79 % 1016,1 hPa 0,0 l/m 2 min 0 min 728 W/m 6,4 km/h (2 Bft) 95,74 %
26.07.2022 10:16 21,4 C 23,9 C 18,3 C 78 % 1016,0 hPa 0,0 l/m 2 min 0 min 712 W/m 12,9 km/h (3 Bft) 100,00 %
26.07.2022 10:18 21,4 C 23,3 C 18,3 C 77 % 1015,9 hPa 0,0 l/m 2 min 0 min 362 W/m 9,7 km/h (2 Bft) 100,00 %
26.07.2022 10:20 21,4 C 22,8 C 18,3 C 76 % 1015,9 hPa 0,0 l/m 2 min 0 min 375 W/m 19,3 km/h (3 Bft) 97,87 %
26.07.2022 10:22 21,4 C 22,8 C 18,3 C 76 % 1015,9 hPa 0,0 l/m 2 min 0 min 440 W/m 6,4 km/h (2 Bft) 97,87 %
26.07.2022 10:24 21,4 C 22,2 C 18,3 C 76 % 1015,9 hPa 0,0 l/m 2 min 0 min 394 W/m 12,9 km/h (3 Bft) 100,00 %
26.07.2022 10:26 21,4 C 22,2 C 18,3 C 76 % 1015,9 hPa 0,0 l/m 2 min 0 min 315 W/m 12,9 km/h (3 Bft) 100,00 %
26.07.2022 10:28 21,4 C 21,7 C 17,8 C 76 % 1015,9 hPa 0,0 l/m 2 min 0 min 378 W/m 12,9 km/h (3 Bft) 100,00 %
26.07.2022 10:30 21,4 C 21,7 C 17,8 C 76 % 1016,0 hPa 0,0 l/m 2 min 0 min 325 W/m 12,9 km/h (3 Bft) 100,00 %
26.07.2022 10:32 21,4 C 21,7 C 17,8 C 76 % 1015,9 hPa 0,0 l/m 0 min 0 min 257 W/m 19,3 km/h (3 Bft) 100,00 %
26.07.2022 10:34 21,4 C 21,7 C 17,8 C 76 % 1016,0 hPa 0,0 l/m 0 min 0 min 238 W/m 12,9 km/h (3 Bft) 100,00 %
26.07.2022 10:36 21,4 C 21,7 C 17,8 C 76 % 1015,9 hPa 0,0 l/m 0 min 0 min 300 W/m 12,9 km/h (3 Bft) 100,00 %
26.07.2022 10:38 21,4 C 21,7 C 18,3 C 76 % 1016,0 hPa 0,0 l/m 0 min 0 min 304 W/m 9,7 km/h (2 Bft) 100,00 %
26.07.2022 10:40 21,4 C 21,7 C 17,8 C 76 % 1016,0 hPa 0,0 l/m 2 min 0 min 332 W/m 9,7 km/h (2 Bft) 100,00 %
26.07.2022 10:42 21,4 C 21,7 C 18,3 C 76 % 1015,9 hPa 0,0 l/m 2 min 0 min 332 W/m 12,9 km/h (3 Bft) 100,00 %
26.07.2022 10:44 21,5 C 22,2 C 18,3 C 76 % 1015,9 hPa 0,0 l/m 2 min 0 min 332 W/m 19,3 km/h (3 Bft) 100,00 %
26.07.2022 10:46 21,6 C 22,2 C 18,9 C 76 % 1015,9 hPa 0,0 l/m 2 min 0 min 422 W/m 12,9 km/h (3 Bft) 100,00 %
26.07.2022 10:48 21,7 C 22,2 C 19,4 C 76 % 1015,9 hPa 0,0 l/m 2 min 0 min 794 W/m 16,1 km/h (3 Bft) 100,00 %
26.07.2022 10:50 21,8 C 22,8 C 19,4 C 76 % 1015,9 hPa 0,0 l/m 2 min 0 min 811 W/m 12,9 km/h (3 Bft) 97,83 %
26.07.2022 10:52 21,9 C 22,8 C 19,4 C 74 % 1015,9 hPa 0,0 l/m 2 min 0 min 868 W/m 16,1 km/h (3 Bft) 100,00 %
26.07.2022 10:54 21,9 C 22,8 C 19,4 C 74 % 1016,0 hPa 0,0 l/m 2 min 0 min 504 W/m 19,3 km/h (3 Bft) 100,00 %
26.07.2022 10:56 22,0 C 22,2 C 18,9 C 74 % 1016,0 hPa 0,0 l/m 0 min 0 min 323 W/m 12,9 km/h (3 Bft) 100,00 %
26.07.2022 10:58 22,0 C 22,2 C 18,9 C 73 % 1015,9 hPa 0,0 l/m 0 min 0 min 281 W/m 6,4 km/h (2 Bft) 97,87 %
26.07.2022 11:00 22,0 C 22,2 C 18,3 C 74 % 1015,9 hPa 0,0 l/m 0 min 0 min 236 W/m 12,9 km/h (3 Bft) 97,83 %
26.07.2022 11:02 22,0 C 22,2 C 18,3 C 73 % 1015,9 hPa 0,0 l/m 0 min 0 min 228 W/m 12,9 km/h (3 Bft) 95,74 %
26.07.2022 11:04 22,0 C 22,2 C 18,3 C 73 % 1016,0 hPa 0,0 l/m 0 min 0 min 276 W/m 16,1 km/h (3 Bft) 97,87 %
26.07.2022 11:06 21,9 C 22,2 C 18,3 C 73 % 1015,9 hPa 0,0 l/m 0 min 0 min 320 W/m 16,1 km/h (3 Bft) 97,87 %
26.07.2022 11:08 21,9 C 22,2 C 18,3 C 73 % 1015,9 hPa 0,0 l/m 2 min 0 min 379 W/m 12,9 km/h (3 Bft) 97,87 %
26.07.2022 11:10 22,0 C 22,2 C 18,3 C 72 % 1015,9 hPa 0,0 l/m 2 min 0 min 656 W/m 12,9 km/h (3 Bft) 97,87 %
26.07.2022 11:12 22,0 C 22,2 C 18,3 C 72 % 1016,0 hPa 0,0 l/m 0 min 0 min 300 W/m 16,1 km/h (3 Bft) 97,83 %
26.07.2022 11:14 22,0 C 22,2 C 18,3 C 72 % 1016,0 hPa 0,0 l/m 0 min 0 min 320 W/m 19,3 km/h (3 Bft) 95,74 %
26.07.2022 11:16 22,1 C 22,2 C 18,3 C 72 % 1016,0 hPa 0,0 l/m 0 min 0 min 284 W/m 12,9 km/h (3 Bft) 97,87 %
26.07.2022 11:18 22,0 C 22,2 C 18,3 C 73 % 1016,0 hPa 0,0 l/m 0 min 0 min 169 W/m 12,9 km/h (3 Bft) 95,74 %
26.07.2022 11:20 21,9 C 21,7 C 17,8 C 73 % 1016,1 hPa 0,0 l/m 0 min 0 min 194 W/m 9,7 km/h (2 Bft) 97,87 %
26.07.2022 11:22 21,8 C 21,7 C 17,8 C 73 % 1016,1 hPa 0,0 l/m 0 min 0 min 225 W/m 9,7 km/h (2 Bft) 95,74 %
26.07.2022 11:24 21,8 C 22,2 C 18,3 C 74 % 1016,1 hPa 0,0 l/m 2 min 0 min 841 W/m 16,1 km/h (3 Bft) 93,62 %
26.07.2022 11:26 21,8 C 22,2 C 18,3 C 74 % 1016,2 hPa 0,0 l/m 0 min 0 min 276 W/m 12,9 km/h (3 Bft) 97,83 %
26.07.2022 11:28 21,8 C 21,7 C 18,3 C 73 % 1016,2 hPa 0,0 l/m 0 min 0 min 166 W/m 12,9 km/h (3 Bft) 97,87 %
26.07.2022 11:30 21,6 C 21,1 C 17,8 C 72 % 1016,2 hPa 0,0 l/m 0 min 2 min 169 W/m 16,1 km/h (3 Bft) 97,87 %
26.07.2022 11:32 21,6 C 21,1 C 17,8 C 73 % 1016,2 hPa 0,0 l/m 0 min 0 min 181 W/m 12,9 km/h (3 Bft) 97,87 %
26.07.2022 11:34 21,6 C 22,2 C 17,8 C 73 % 1016,2 hPa 0,0 l/m 0 min 0 min 181 W/m 12,9 km/h (3 Bft) 93,62 %
26.07.2022 11:36 21,6 C 22,2 C 18,3 C 73 % 1016,2 hPa 0,0 l/m 0 min 0 min 181 W/m 16,1 km/h (3 Bft) 100,00 %
26.07.2022 11:38 21,7 C 22,2 C 18,3 C 72 % 1016,2 hPa 0,0 l/m 0 min 0 min 176 W/m 12,9 km/h (3 Bft) 100,00 %
26.07.2022 11:40 21,8 C 23,3 C 18,3 C 71 % 1016,2 hPa 0,0 l/m 2 min 0 min 390 W/m 16,1 km/h (3 Bft) 97,87 %
26.07.2022 11:42 21,9 C 23,3 C 18,3 C 70 % 1016,2 hPa 0,0 l/m 2 min 0 min 858 W/m 16,1 km/h (3 Bft) 95,74 %
26.07.2022 11:44 22,1 C 23,9 C 18,9 C 71 % 1016,2 hPa 0,0 l/m 2 min 0 min 890 W/m 9,7 km/h (2 Bft) 97,87 %
26.07.2022 11:46 22,2 C 23,9 C 18,9 C 70 % 1016,2 hPa 0,0 l/m 2 min 0 min 886 W/m 16,1 km/h (3 Bft) 95,74 %
26.07.2022 11:48 22,4 C 24,4 C 19,4 C 70 % 1016,2 hPa 0,0 l/m 2 min 0 min 865 W/m 12,9 km/h (3 Bft) 97,83 %
26.07.2022 11:50 22,6 C 24,4 C 19,4 C 69 % 1016,2 hPa 0,0 l/m 2 min 0 min 871 W/m 16,1 km/h (3 Bft) 97,87 %
26.07.2022 11:52 22,6 C 23,9 C 19,4 C 70 % 1016,2 hPa 0,0 l/m 2 min 0 min 841 W/m 19,3 km/h (3 Bft) 95,74 %
26.07.2022 11:54 22,6 C 23,9 C 19,4 C 69 % 1016,2 hPa 0,0 l/m 0 min 0 min 314 W/m 22,5 km/h (4 Bft) 97,87 %
26.07.2022 11:56 22,6 C 23,3 C 19,4 C 71 % 1016,3 hPa 0,0 l/m 0 min 0 min 297 W/m 29,0 km/h (5 Bft) 95,74 %
26.07.2022 11:58 22,5 C 23,3 C 19,4 C 71 % 1016,3 hPa 0,0 l/m 0 min 0 min 297 W/m 22,5 km/h (4 Bft) 95,74 %
26.07.2022 12:00 22,5 C 23,3 C 19,4 C 72 % 1016,3 hPa 0,0 l/m 2 min 0 min 507 W/m 19,3 km/h (3 Bft) 95,65 %
26.07.2022 12:02 22,4 C 23,9 C 19,4 C 73 % 1016,2 hPa 0,0 l/m 2 min 0 min 608 W/m 16,1 km/h (3 Bft) 95,74 %
26.07.2022 12:04 22,6 C 24,4 C 20,0 C 74 % 1016,3 hPa 0,0 l/m 2 min 0 min 925 W/m 22,5 km/h (4 Bft) 93,62 %
26.07.2022 12:08 22,6 C 23,9 C 20,0 C 73 % 1016,3 hPa 0,0 l/m 4 min 0 min 793 W/m 19,3 km/h (3 Bft) 95,83 %
26.07.2022 12:10 22,6 C 23,9 C 21,1 C 74 % 1016,3 hPa 0,0 l/m 2 min 0 min 675 W/m 25,7 km/h (4 Bft) 95,74 %
26.07.2022 12:12 22,6 C 23,9 C 21,7 C 73 % 1016,3 hPa 0,0 l/m 2 min 0 min 712 W/m 16,1 km/h (3 Bft) 93,48 %
26.07.2022 12:14 22,7 C 24,4 C 21,7 C 73 % 1016,3 hPa 0,0 l/m 2 min 0 min 633 W/m 12,9 km/h (3 Bft) 95,74 %
26.07.2022 12:16 22,8 C 24,4 C 22,8 C 72 % 1016,2 hPa 0,0 l/m 2 min 0 min 633 W/m 12,9 km/h (3 Bft) 95,74 %
26.07.2022 12:18 22,9 C 25,0 C 23,9 C 71 % 1016,2 hPa 0,0 l/m 2 min 0 min 790 W/m 19,3 km/h (3 Bft) 95,74 %
26.07.2022 12:20 23,0 C 25,0 C 25,0 C 71 % 1016,2 hPa 0,0 l/m 2 min 0 min 911 W/m 29,0 km/h (5 Bft) 95,74 %
26.07.2022 12:22 23,1 C 25,6 C 25,6 C 70 % 1016,2 hPa 0,0 l/m 2 min 0 min 922 W/m 12,9 km/h (3 Bft) 93,62 %
26.07.2022 12:24 23,2 C 25,6 C 26,1 C 71 % 1016,2 hPa 0,0 l/m 2 min 0 min 938 W/m 12,9 km/h (3 Bft) 95,65 %
26.07.2022 12:26 23,3 C 25,6 C 25,6 C 70 % 1016,2 hPa 0,0 l/m 2 min 0 min 989 W/m 16,1 km/h (3 Bft) 95,74 %
26.07.2022 12:28 23,4 C 24,4 C 23,9 C 70 % 1016,2 hPa 0,0 l/m 2 min 0 min 663 W/m 19,3 km/h (3 Bft) 95,74 %
26.07.2022 12:30 23,4 C 23,9 C 22,2 C 69 % 1016,5 hPa 0,0 l/m 0 min 0 min 129 W/m 16,1 km/h (3 Bft) 95,74 %
26.07.2022 12:32 23,3 C 23,3 C 21,1 C 69 % 1016,5 hPa 0,0 l/m 0 min 0 min 108 W/m 12,9 km/h (3 Bft) 95,74 %
26.07.2022 12:34 22,9 C 22,2 C 19,4 C 68 % 1016,4 hPa 0,0 l/m 0 min 0 min 102 W/m 32,2 km/h (5 Bft) 97,87 %
26.07.2022 12:36 22,7 C 21,7 C 18,3 C 68 % 1016,6 hPa 0,0 l/m 0 min 0 min 98 W/m 38,6 km/h (5 Bft) 97,83 %
26.07.2022 12:38 22,4 C 21,1 C 17,8 C 69 % 1016,6 hPa 0,0 l/m 0 min 0 min 129 W/m 25,7 km/h (4 Bft) 97,87 %
26.07.2022 12:40 22,1 C 20,6 C 17,8 C 69 % 1016,6 hPa 0,0 l/m 0 min 0 min 164 W/m 22,5 km/h (4 Bft) 95,74 %
26.07.2022 12:42 21,7 C 20,6 C 17,8 C 70 % 1016,6 hPa 0,0 l/m 0 min 0 min 159 W/m 16,1 km/h (3 Bft) 100,00 %
26.07.2022 12:44 21,4 C 20,6 C 17,2 C 71 % 1016,6 hPa 0,0 l/m 0 min 0 min 186 W/m 25,7 km/h (4 Bft) 100,00 %
26.07.2022 12:46 21,3 C 20,6 C 17,2 C 72 % 1016,6 hPa 0,0 l/m 0 min 0 min 166 W/m 22,5 km/h (4 Bft) 100,00 %
26.07.2022 12:48 21,2 C 20,6 C 17,2 C 72 % 1016,6 hPa 0,0 l/m 0 min 0 min 151 W/m 32,2 km/h (5 Bft) 100,00 %
26.07.2022 12:50 21,1 C 20,6 C 17,2 C 73 % 1016,7 hPa 0,0 l/m 0 min 0 min 147 W/m 25,7 km/h (4 Bft) 100,00 %
26.07.2022 12:52 21,1 C 20,0 C 17,2 C 74 % 1016,7 hPa 0,0 l/m 0 min 0 min 126 W/m 32,2 km/h (5 Bft) 100,00 %
26.07.2022 12:54 21,0 C 20,0 C 16,7 C 74 % 1016,7 hPa 0,0 l/m 0 min 0 min 121 W/m 22,5 km/h (4 Bft) 100,00 %
26.07.2022 12:56 20,9 C 20,0 C 16,7 C 75 % 1016,7 hPa 0,0 l/m 0 min 0 min 129 W/m 16,1 km/h (3 Bft) 97,87 %
26.07.2022 12:58 20,7 C 20,0 C 16,7 C 76 % 1016,8 hPa 0,0 l/m 0 min 0 min 150 W/m 29,0 km/h (5 Bft) 100,00 %
26.07.2022 13:00 20,6 C 20,0 C 16,7 C 76 % 1016,8 hPa 0,0 l/m 0 min 0 min 181 W/m 25,7 km/h (4 Bft) 100,00 %
26.07.2022 13:02 20,6 C 20,0 C 16,7 C 77 % 1016,8 hPa 0,0 l/m 0 min 0 min 210 W/m 12,9 km/h (3 Bft) 97,87 %
26.07.2022 13:04 20,5 C 20,0 C 16,7 C 77 % 1016,8 hPa 0,0 l/m 0 min 0 min 231 W/m 19,3 km/h (3 Bft) 97,87 %
26.07.2022 13:06 20,4 C 20,0 C 16,7 C 77 % 1016,8 hPa 0,0 l/m 0 min 0 min 259 W/m 16,1 km/h (3 Bft) 93,62 %
26.07.2022 13:08 20,4 C 20,6 C 17,2 C 77 % 1016,9 hPa 0,0 l/m 0 min 0 min 287 W/m 19,3 km/h (3 Bft) 95,74 %
26.07.2022 13:10 20,4 C 20,6 C 17,2 C 78 % 1016,9 hPa 0,0 l/m 0 min 0 min 257 W/m 16,1 km/h (3 Bft) 97,87 %
26.07.2022 13:12 20,4 C 20,6 C 17,2 C 78 % 1017,0 hPa 0,0 l/m 0 min 0 min 238 W/m 16,1 km/h (3 Bft) 97,83 %
26.07.2022 13:14 20,5 C 20,6 C 17,2 C 78 % 1016,9 hPa 0,0 l/m 0 min 0 min 230 W/m 9,7 km/h (2 Bft) 97,87 %
26.07.2022 13:16 20,6 C 20,6 C 17,2 C 78 % 1017,0 hPa 0,0 l/m 0 min 0 min 231 W/m 19,3 km/h (3 Bft) 97,87 %
26.07.2022 13:18 20,5 C 20,6 C 17,2 C 77 % 1017,0 hPa 0,0 l/m 0 min 0 min 245 W/m 19,3 km/h (3 Bft) 97,87 %
26.07.2022 13:20 20,6 C 20,6 C 17,2 C 78 % 1017,0 hPa 0,0 l/m 0 min 0 min 255 W/m 12,9 km/h (3 Bft) 97,87 %
26.07.2022 13:22 20,6 C 20,6 C 17,2 C 78 % 1017,0 hPa 0,0 l/m 0 min 0 min 268 W/m 12,9 km/h (3 Bft) 97,87 %
26.07.2022 13:24 20,6 C 21,1 C 17,2 C 78 % 1016,9 hPa 0,0 l/m 0 min 0 min 268 W/m 6,4 km/h (2 Bft) 97,83 %
26.07.2022 13:26 20,7 C 21,1 C 17,2 C 78 % 1017,0 hPa 0,0 l/m 0 min 0 min 254 W/m 16,1 km/h (3 Bft) 95,74 %
26.07.2022 13:28 20,8 C 21,1 C 17,2 C 78 % 1017,0 hPa 0,0 l/m 0 min 0 min 245 W/m 19,3 km/h (3 Bft) 97,87 %
26.07.2022 13:30 20,8 C 21,1 C 17,2 C 78 % 1017,0 hPa 0,0 l/m 0 min 0 min 234 W/m 9,7 km/h (2 Bft) 97,87 %
26.07.2022 13:32 20,9 C 21,1 C 17,8 C 78 % 1017,1 hPa 0,0 l/m 0 min 0 min 224 W/m 16,1 km/h (3 Bft) 97,87 %
26.07.2022 13:34 20,9 C 21,1 C 17,8 C 78 % 1017,1 hPa 0,0 l/m 0 min 0 min 280 W/m 16,1 km/h (3 Bft) 97,87 %
26.07.2022 13:36 21,0 C 21,7 C 17,8 C 78 % 1017,0 hPa 0,0 l/m 2 min 0 min 447 W/m 9,7 km/h (2 Bft) 100,00 %
26.07.2022 13:38 21,1 C 22,2 C 17,8 C 78 % 1017,0 hPa 0,0 l/m 0 min 0 min 398 W/m 9,7 km/h (2 Bft) 100,00 %
26.07.2022 13:40 21,1 C 22,2 C 18,3 C 78 % 1017,0 hPa 0,0 l/m 0 min 0 min 301 W/m 19,3 km/h (3 Bft) 100,00 %
26.07.2022 13:42 21,2 C 22,2 C 18,3 C 77 % 1017,0 hPa 0,0 l/m 0 min 0 min 352 W/m 12,9 km/h (3 Bft) 100,00 %
26.07.2022 13:44 21,3 C 22,8 C 18,3 C 77 % 1017,0 hPa 0,0 l/m 2 min 0 min 436 W/m 6,4 km/h (2 Bft) 100,00 %
26.07.2022 13:46 21,3 C 22,8 C 18,3 C 77 % 1017,0 hPa 0,0 l/m 0 min 0 min 350 W/m 16,1 km/h (3 Bft) 97,87 %
26.07.2022 13:48 21,4 C 22,2 C 18,3 C 75 % 1016,9 hPa 0,0 l/m 0 min 0 min 268 W/m 12,9 km/h (3 Bft) 100,00 %
26.07.2022 13:50 21,4 C 22,2 C 18,3 C 75 % 1016,9 hPa 0,0 l/m 0 min 0 min 247 W/m 12,9 km/h (3 Bft) 100,00 %
26.07.2022 13:52 21,4 C 21,7 C 17,8 C 75 % 1016,9 hPa 0,0 l/m 0 min 0 min 174 W/m 3,2 km/h (1 Bft) 97,87 %
26.07.2022 13:54 21,4 C 21,7 C 17,8 C 75 % 1016,9 hPa 0,0 l/m 0 min 0 min 164 W/m 19,3 km/h (3 Bft) 97,87 %
26.07.2022 13:56 21,4 C 21,7 C 17,8 C 75 % 1016,9 hPa 0,0 l/m 0 min 0 min 174 W/m 12,9 km/h (3 Bft) 100,00 %
26.07.2022 13:58 21,4 C 21,7 C 17,8 C 75 % 1016,9 hPa 0,0 l/m 0 min 0 min 194 W/m 9,7 km/h (2 Bft) 100,00 %
26.07.2022 14:00 21,4 C 21,7 C 17,8 C 75 % 1017,0 hPa 0,0 l/m 0 min 0 min 208 W/m 19,3 km/h (3 Bft) 100,00 %
26.07.2022 14:02 21,4 C 21,1 C 17,8 C 74 % 1017,0 hPa 0,0 l/m 0 min 0 min 197 W/m 9,7 km/h (2 Bft) 100,00 %
26.07.2022 14:04 21,4 C 21,1 C 17,8 C 74 % 1016,9 hPa 0,0 l/m 0 min 0 min 182 W/m 16,1 km/h (3 Bft) 100,00 %
26.07.2022 14:06 21,3 C 21,1 C 17,8 C 74 % 1016,9 hPa 0,0 l/m 0 min 0 min 225 W/m 12,9 km/h (3 Bft) 100,00 %
26.07.2022 14:08 21,3 C 21,1 C 17,8 C 74 % 1016,9 hPa 0,0 l/m 0 min 0 min 250 W/m 16,1 km/h (3 Bft) 100,00 %
26.07.2022 14:10 21,3 C 22,2 C 17,8 C 75 % 1017,0 hPa 0,0 l/m 0 min 0 min 318 W/m 9,7 km/h (2 Bft) 100,00 %
26.07.2022 14:12 21,5 C 23,9 C 18,3 C 75 % 1016,9 hPa 0,0 l/m 2 min 0 min 896 W/m 9,7 km/h (2 Bft) 100,00 %
26.07.2022 14:14 21,7 C 24,4 C 18,9 C 75 % 1016,9 hPa 0,0 l/m 2 min 0 min 1136 W/m 12,9 km/h (3 Bft) 100,00 %
26.07.2022 14:16 21,9 C 23,9 C 18,9 C 73 % 1016,8 hPa 0,0 l/m 2 min 0 min 725 W/m 9,7 km/h (2 Bft) 100,00 %
26.07.2022 14:18 22,1 C 23,9 C 18,9 C 73 % 1016,9 hPa 0,0 l/m 2 min 0 min 409 W/m 19,3 km/h (3 Bft) 100,00 %
26.07.2022 14:20 22,1 C 23,9 C 18,9 C 71 % 1016,9 hPa 0,0 l/m 0 min 0 min 353 W/m 16,1 km/h (3 Bft) 100,00 %
26.07.2022 14:22 22,2 C 23,3 C 18,9 C 72 % 1016,9 hPa 0,0 l/m 0 min 0 min 311 W/m 22,5 km/h (4 Bft) 100,00 %
26.07.2022 14:24 22,2 C 22,8 C 18,9 C 71 % 1016,9 hPa 0,0 l/m 0 min 0 min 274 W/m 19,3 km/h (3 Bft) 100,00 %
26.07.2022 14:26 22,2 C 22,8 C 18,3 C 71 % 1016,9 hPa 0,0 l/m 0 min 0 min 266 W/m 9,7 km/h (2 Bft) 100,00 %
26.07.2022 14:28 22,2 C 23,9 C 18,9 C 71 % 1016,9 hPa 0,0 l/m 2 min 0 min 698 W/m 16,1 km/h (3 Bft) 97,87 %
26.07.2022 14:30 22,3 C 24,4 C 18,9 C 71 % 1016,9 hPa 0,0 l/m 2 min 0 min 999 W/m 9,7 km/h (2 Bft) 97,87 %
26.07.2022 14:32 22,4 C 24,4 C 18,9 C 71 % 1016,9 hPa 0,0 l/m 2 min 0 min 696 W/m 16,1 km/h (3 Bft) 97,87 %
26.07.2022 14:34 22,6 C 25,0 C 19,4 C 70 % 1016,9 hPa 0,0 l/m 2 min 0 min 536 W/m 22,5 km/h (4 Bft) 97,83 %
26.07.2022 14:36 22,7 C 24,4 C 18,9 C 69 % 1016,9 hPa 0,0 l/m 2 min 0 min 1130 W/m 29,0 km/h (5 Bft) 97,87 %
26.07.2022 14:38 22,7 C 23,9 C 18,9 C 70 % 1016,9 hPa 0,0 l/m 2 min 0 min 675 W/m 22,5 km/h (4 Bft) 97,87 %
26.07.2022 14:40 22,7 C 22,8 C 18,3 C 69 % 1016,9 hPa 0,0 l/m 0 min 0 min 206 W/m 25,7 km/h (4 Bft) 95,74 %
26.07.2022 14:42 22,6 C 22,8 C 18,3 C 70 % 1016,9 hPa 0,0 l/m 0 min 0 min 217 W/m 19,3 km/h (3 Bft) 97,87 %
26.07.2022 14:44 22,4 C 22,8 C 18,3 C 71 % 1016,9 hPa 0,0 l/m 0 min 0 min 262 W/m 12,9 km/h (3 Bft) 97,87 %
26.07.2022 14:46 22,3 C 23,3 C 18,3 C 71 % 1016,9 hPa 0,0 l/m 0 min 0 min 265 W/m 12,9 km/h (3 Bft) 97,83 %
26.07.2022 14:48 22,4 C 23,9 C 18,9 C 71 % 1016,9 hPa 0,0 l/m 0 min 0 min 265 W/m 9,7 km/h (2 Bft) 93,62 %
26.07.2022 14:50 22,4 C 24,4 C 18,9 C 71 % 1016,9 hPa 0,0 l/m 2 min 0 min 607 W/m 16,1 km/h (3 Bft) 97,87 %
26.07.2022 14:52 22,6 C 25,6 C 18,9 C 71 % 1016,8 hPa 0,0 l/m 2 min 0 min 954 W/m 16,1 km/h (3 Bft) 97,87 %
26.07.2022 14:54 22,7 C 25,6 C 18,9 C 70 % 1016,8 hPa 0,0 l/m 2 min 0 min 942 W/m 16,1 km/h (3 Bft) 97,87 %
26.07.2022 14:56 22,9 C 26,1 C 18,9 C 70 % 1016,9 hPa 0,0 l/m 2 min 0 min 949 W/m 19,3 km/h (3 Bft) 97,87 %
26.07.2022 14:58 23,0 C 26,7 C 18,9 C 69 % 1016,8 hPa 0,0 l/m 2 min 0 min 963 W/m 12,9 km/h (3 Bft) 93,48 %
26.07.2022 15:00 23,2 C 27,2 C 19,4 C 70 % 1016,8 hPa 0,0 l/m 2 min 0 min 1012 W/m 9,7 km/h (2 Bft) 97,87 %
26.07.2022 15:02 23,3 C 26,1 C 19,4 C 68 % 1016,8 hPa 0,0 l/m 2 min 0 min 978 W/m 19,3 km/h (3 Bft) 95,74 %
26.07.2022 15:04 23,4 C 25,6 C 19,4 C 68 % 1016,8 hPa 0,0 l/m 2 min 0 min 414 W/m 12,9 km/h (3 Bft) 95,74 %
26.07.2022 15:06 23,4 C 24,4 C 19,4 C 67 % 1016,8 hPa 0,0 l/m 0 min 0 min 246 W/m 16,1 km/h (3 Bft) 91,49 %
26.07.2022 15:08 23,4 C 23,9 C 18,9 C 67 % 1016,8 hPa 0,0 l/m 0 min 0 min 258 W/m 22,5 km/h (4 Bft) 93,62 %
26.07.2022 15:10 23,3 C 23,3 C 18,9 C 67 % 1016,8 hPa 0,0 l/m 0 min 0 min 292 W/m 12,9 km/h (3 Bft) 95,65 %
26.07.2022 15:12 23,1 C 23,3 C 18,9 C 68 % 1016,8 hPa 0,0 l/m 0 min 0 min 350 W/m 16,1 km/h (3 Bft) 95,74 %
26.07.2022 15:14 23,1 C 23,3 C 18,9 C 69 % 1016,9 hPa 0,0 l/m 2 min 0 min 460 W/m 25,7 km/h (4 Bft) 93,62 %
26.07.2022 15:16 23,0 C 23,3 C 18,9 C 68 % 1016,9 hPa 0,0 l/m 2 min 0 min 442 W/m 19,3 km/h (3 Bft) 95,74 %
26.07.2022 15:18 23,0 C 23,3 C 19,4 C 69 % 1016,9 hPa 0,0 l/m 2 min 0 min 413 W/m 19,3 km/h (3 Bft) 95,74 %
26.07.2022 15:20 22,9 C 23,3 C 19,4 C 68 % 1016,9 hPa 0,0 l/m 0 min 0 min 358 W/m 16,1 km/h (3 Bft) 93,62 %
26.07.2022 15:22 22,9 C 22,8 C 19,4 C 68 % 1016,9 hPa 0,0 l/m 0 min 0 min 309 W/m 19,3 km/h (3 Bft) 91,30 %
26.07.2022 15:24 22,8 C 22,8 C 18,9 C 67 % 1016,9 hPa 0,0 l/m 0 min 0 min 270 W/m 12,9 km/h (3 Bft) 93,62 %
26.07.2022 15:26 22,7 C 22,8 C 18,9 C 68 % 1016,9 hPa 0,0 l/m 0 min 0 min 244 W/m 19,3 km/h (3 Bft) 95,74 %
26.07.2022 15:28 22,7 C 22,2 C 18,9 C 68 % 1016,9 hPa 0,0 l/m 0 min 0 min 237 W/m 19,3 km/h (3 Bft) 93,62 %
26.07.2022 15:30 22,6 C 22,2 C 18,9 C 69 % 1016,8 hPa 0,0 l/m 0 min 0 min 244 W/m 25,7 km/h (4 Bft) 93,62 %
26.07.2022 15:32 22,6 C 22,2 C 18,9 C 69 % 1016,8 hPa 0,0 l/m 0 min 0 min 250 W/m 22,5 km/h (4 Bft) 95,74 %
26.07.2022 15:34 22,6 C 22,8 C 18,9 C 70 % 1016,9 hPa 0,0 l/m 0 min 0 min 247 W/m 12,9 km/h (3 Bft) 95,65 %
26.07.2022 15:36 22,5 C 22,2 C 18,9 C 70 % 1016,9 hPa 0,0 l/m 0 min 0 min 245 W/m 16,1 km/h (3 Bft) 97,87 %
26.07.2022 15:38 22,4 C 22,2 C 18,3 C 70 % 1016,9 hPa 0,0 l/m 0 min 0 min 248 W/m 22,5 km/h (4 Bft) 97,87 %
26.07.2022 15:40 22,4 C 22,2 C 18,3 C 70 % 1017,0 hPa 0,0 l/m 0 min 0 min 252 W/m 32,2 km/h (5 Bft) 97,87 %
26.07.2022 15:42 22,3 C 22,2 C 18,3 C 70 % 1017,0 hPa 0,0 l/m 0 min 0 min 255 W/m 19,3 km/h (3 Bft) 97,87 %
26.07.2022 15:44 22,2 C 22,2 C 17,8 C 71 % 1017,1 hPa 0,0 l/m 0 min 0 min 267 W/m 25,7 km/h (4 Bft) 97,87 %
26.07.2022 15:46 22,1 C 21,7 C 17,8 C 72 % 1017,1 hPa 0,0 l/m 0 min 0 min 291 W/m 22,5 km/h (4 Bft) 97,83 %
26.07.2022 15:48 21,9 C 21,7 C 17,8 C 72 % 1017,1 hPa 0,0 l/m 0 min 0 min 315 W/m 25,7 km/h (4 Bft) 95,74 %
26.07.2022 15:50 21,8 C 21,7 C 17,8 C 73 % 1017,1 hPa 0,0 l/m 0 min 0 min 335 W/m 25,7 km/h (4 Bft) 97,87 %
26.07.2022 15:52 21,8 C 22,2 C 17,8 C 73 % 1017,2 hPa 0,0 l/m 2 min 0 min 383 W/m 22,5 km/h (4 Bft) 97,87 %
26.07.2022 15:54 21,7 C 22,8 C 17,8 C 73 % 1017,2 hPa 0,0 l/m 2 min 0 min 401 W/m 25,7 km/h (4 Bft) 97,87 %
26.07.2022 15:56 21,6 C 22,8 C 17,8 C 74 % 1017,2 hPa 0,0 l/m 2 min 0 min 609 W/m 25,7 km/h (4 Bft) 97,87 %
26.07.2022 15:58 21,6 C 22,8 C 17,8 C 74 % 1017,2 hPa 0,0 l/m 2 min 0 min 517 W/m 16,1 km/h (3 Bft) 97,83 %
26.07.2022 16:00 21,6 C 22,8 C 17,8 C 74 % 1017,3 hPa 0,0 l/m 2 min 0 min 550 W/m 16,1 km/h (3 Bft) 95,74 %
26.07.2022 16:02 21,6 C 23,3 C 17,8 C 74 % 1017,3 hPa 0,0 l/m 2 min 0 min 596 W/m 25,7 km/h (4 Bft) 97,87 %
26.07.2022 16:04 21,6 C 22,8 C 17,8 C 74 % 1017,3 hPa 0,0 l/m 2 min 0 min 622 W/m 25,7 km/h (4 Bft) 95,74 %
26.07.2022 16:06 21,6 C 23,9 C 18,3 C 74 % 1017,4 hPa 0,0 l/m 2 min 0 min 550 W/m 25,7 km/h (4 Bft) 95,74 %
26.07.2022 16:08 21,7 C 23,3 C 18,3 C 74 % 1017,4 hPa 0,0 l/m 2 min 0 min 475 W/m 16,1 km/h (3 Bft) 100,00 %
26.07.2022 16:10 21,7 C 22,8 C 18,3 C 73 % 1017,5 hPa 0,0 l/m 2 min 0 min 418 W/m 25,7 km/h (4 Bft) 100,00 %
26.07.2022 16:12 21,6 C 22,8 C 17,8 C 73 % 1017,4 hPa 0,0 l/m 2 min 0 min 424 W/m 25,7 km/h (4 Bft) 100,00 %
26.07.2022 16:14 21,6 C 22,8 C 17,8 C 74 % 1017,5 hPa 0,0 l/m 2 min 0 min 500 W/m 22,5 km/h (4 Bft) 97,87 %
26.07.2022 16:16 21,6 C 22,8 C 17,8 C 74 % 1017,5 hPa 0,0 l/m 2 min 0 min 501 W/m 19,3 km/h (3 Bft) 100,00 %
26.07.2022 16:18 21,6 C 23,3 C 17,8 C 74 % 1017,5 hPa 0,0 l/m 2 min 0 min 516 W/m 19,3 km/h (3 Bft) 100,00 %
26.07.2022 16:20 21,6 C 23,3 C 18,3 C 74 % 1017,6 hPa 0,0 l/m 2 min 0 min 526 W/m 22,5 km/h (4 Bft) 100,00 %
26.07.2022 16:22 21,6 C 23,3 C 18,3 C 74 % 1017,5 hPa 0,0 l/m 2 min 0 min 586 W/m 19,3 km/h (3 Bft) 100,00 %
26.07.2022 16:24 21,7 C 23,9 C 18,3 C 74 % 1017,6 hPa 0,0 l/m 2 min 0 min 656 W/m 22,5 km/h (4 Bft) 100,00 %
26.07.2022 16:26 21,7 C 23,3 C 18,3 C 74 % 1017,5 hPa 0,0 l/m 2 min 0 min 552 W/m 19,3 km/h (3 Bft) 100,00 %
26.07.2022 16:28 21,7 C 25,0 C 18,3 C 73 % 1017,6 hPa 0,0 l/m 2 min 0 min 712 W/m 12,9 km/h (3 Bft) 100,00 %
26.07.2022 16:30 21,9 C 26,1 C 18,9 C 73 % 1017,5 hPa 0,0 l/m 2 min 0 min 691 W/m 16,1 km/h (3 Bft) 100,00 %
26.07.2022 16:32 22,1 C 26,7 C 18,9 C 72 % 1017,6 hPa 0,0 l/m 2 min 0 min 925 W/m 19,3 km/h (3 Bft) 100,00 %
26.07.2022 16:34 22,2 C 26,7 C 18,9 C 71 % 1017,6 hPa 0,0 l/m 2 min 0 min 889 W/m 25,7 km/h (4 Bft) 100,00 %
26.07.2022 16:36 22,3 C 27,2 C 18,9 C 70 % 1017,6 hPa 0,0 l/m 2 min 0 min 889 W/m 16,1 km/h (3 Bft) 97,87 %
26.07.2022 16:38 22,3 C 27,2 C 18,9 C 70 % 1017,6 hPa 0,0 l/m 2 min 0 min 874 W/m 12,9 km/h (3 Bft) 100,00 %
26.07.2022 16:40 22,2 C 26,1 C 18,3 C 70 % 1017,5 hPa 0,0 l/m 2 min 0 min 818 W/m 12,9 km/h (3 Bft) 100,00 %
26.07.2022 16:42 22,1 C 26,1 C 18,9 C 70 % 1017,5 hPa 0,0 l/m 2 min 0 min 789 W/m 22,5 km/h (4 Bft) 100,00 %
26.07.2022 16:44 22,1 C 25,6 C 18,9 C 70 % 1017,5 hPa 0,0 l/m 2 min 0 min 870 W/m 29,0 km/h (5 Bft) 100,00 %
26.07.2022 16:46 22,0 C 25,0 C 18,3 C 71 % 1017,5 hPa 0,0 l/m 2 min 0 min 870 W/m 16,1 km/h (3 Bft) 100,00 %
26.07.2022 16:48 22,0 C 25,0 C 18,3 C 71 % 1017,5 hPa 0,0 l/m 2 min 0 min 870 W/m 16,1 km/h (3 Bft) 100,00 %
26.07.2022 16:50 21,9 C 24,4 C 18,3 C 71 % 1017,6 hPa 0,0 l/m 2 min 0 min 767 W/m 22,5 km/h (4 Bft) 100,00 %
26.07.2022 16:52 22,0 C 23,9 C 18,3 C 71 % 1017,6 hPa 0,0 l/m 2 min 0 min 409 W/m 22,5 km/h (4 Bft) 100,00 %
26.07.2022 16:54 22,0 C 23,9 C 18,3 C 71 % 1017,6 hPa 0,0 l/m 2 min 0 min 436 W/m 19,3 km/h (3 Bft) 100,00 %
26.07.2022 16:56 21,9 C 23,9 C 18,3 C 71 % 1017,6 hPa 0,0 l/m 2 min 0 min 417 W/m 29,0 km/h (5 Bft) 100,00 %
26.07.2022 16:58 21,9 C 23,9 C 18,3 C 71 % 1017,6 hPa 0,0 l/m 2 min 0 min 373 W/m 12,9 km/h (3 Bft) 93,48 %
26.07.2022 17:00 21,9 C 23,3 C 18,3 C 71 % 1017,6 hPa 0,0 l/m 0 min 0 min 309 W/m 22,5 km/h (4 Bft) 95,74 %
26.07.2022 17:02 21,8 C 22,8 C 18,3 C 70 % 1017,6 hPa 0,0 l/m 0 min 0 min 292 W/m 19,3 km/h (3 Bft) 97,87 %
26.07.2022 17:04 21,8 C 23,3 C 18,3 C 70 % 1017,6 hPa 0,0 l/m 0 min 0 min 305 W/m 12,9 km/h (3 Bft) 97,87 %
26.07.2022 17:06 21,7 C 23,3 C 18,3 C 70 % 1017,6 hPa 0,0 l/m 2 min 0 min 448 W/m 16,1 km/h (3 Bft) 95,74 %
26.07.2022 17:08 21,7 C 23,9 C 18,3 C 71 % 1017,6 hPa 0,0 l/m 2 min 0 min 497 W/m 16,1 km/h (3 Bft) 93,62 %
26.07.2022 17:10 21,7 C 25,0 C 18,3 C 72 % 1017,6 hPa 0,0 l/m 2 min 0 min 690 W/m 16,1 km/h (3 Bft) 95,65 %
26.07.2022 17:12 21,9 C 25,0 C 18,9 C 71 % 1017,6 hPa 0,0 l/m 2 min 0 min 528 W/m 9,7 km/h (2 Bft) 95,74 %
26.07.2022 17:14 22,1 C 25,6 C 18,9 C 71 % 1017,6 hPa 0,0 l/m 2 min 0 min 381 W/m 16,1 km/h (3 Bft) 95,74 %
26.07.2022 17:16 22,1 C 25,0 C 18,9 C 71 % 1017,6 hPa 0,0 l/m 2 min 0 min 344 W/m 12,9 km/h (3 Bft) 93,62 %
26.07.2022 17:18 22,2 C 25,0 C 18,9 C 71 % 1017,6 hPa 0,0 l/m 2 min 0 min 417 W/m 12,9 km/h (3 Bft) 95,74 %
26.07.2022 17:20 22,1 C 23,9 C 18,3 C 70 % 1017,6 hPa 0,0 l/m 2 min 0 min 379 W/m 19,3 km/h (3 Bft) 95,74 %
26.07.2022 17:22 21,9 C 23,3 C 18,3 C 69 % 1017,6 hPa 0,0 l/m 2 min 0 min 353 W/m 16,1 km/h (3 Bft) 95,65 %
26.07.2022 17:24 21,9 C 23,3 C 18,3 C 70 % 1017,6 hPa 0,0 l/m 0 min 0 min 278 W/m 12,9 km/h (3 Bft) 95,74 %
26.07.2022 17:26 21,8 C 22,8 C 18,3 C 69 % 1017,6 hPa 0,0 l/m 0 min 0 min 238 W/m 22,5 km/h (4 Bft) 95,74 %
26.07.2022 17:28 21,8 C 22,2 C 17,8 C 69 % 1017,6 hPa 0,0 l/m 0 min 0 min 247 W/m 12,9 km/h (3 Bft) 95,74 %
26.07.2022 17:30 21,8 C 22,8 C 17,8 C 70 % 1017,6 hPa 0,0 l/m 0 min 0 min 264 W/m 19,3 km/h (3 Bft) 95,74 %
26.07.2022 17:32 21,7 C 22,2 C 17,8 C 69 % 1017,7 hPa 0,0 l/m 0 min 0 min 259 W/m 22,5 km/h (4 Bft) 95,65 %
26.07.2022 17:34 21,6 C 22,2 C 17,8 C 69 % 1017,7 hPa 0,0 l/m 2 min 0 min 306 W/m 12,9 km/h (3 Bft) 91,49 %
26.07.2022 17:36 21,4 C 22,2 C 17,8 C 70 % 1017,7 hPa 0,0 l/m 2 min 0 min 354 W/m 22,5 km/h (4 Bft) 95,74 %
26.07.2022 17:38 21,4 C 22,8 C 17,8 C 70 % 1017,7 hPa 0,0 l/m 2 min 0 min 415 W/m 19,3 km/h (3 Bft) 95,74 %
26.07.2022 17:40 21,4 C 22,8 C 17,8 C 70 % 1017,6 hPa 0,0 l/m 2 min 0 min 446 W/m 12,9 km/h (3 Bft) 93,62 %
26.07.2022 17:42 21,3 C 22,2 C 17,8 C 70 % 1017,7 hPa 0,0 l/m 2 min 0 min 337 W/m 16,1 km/h (3 Bft) 100,00 %
26.07.2022 17:44 21,3 C 21,7 C 17,8 C 70 % 1017,6 hPa 0,0 l/m 0 min 0 min 261 W/m 16,1 km/h (3 Bft) 100,00 %
26.07.2022 17:46 21,3 C 21,7 C 17,8 C 70 % 1017,7 hPa 0,0 l/m 0 min 0 min 238 W/m 16,1 km/h (3 Bft) 100,00 %
26.07.2022 17:48 21,3 C 21,7 C 17,8 C 70 % 1017,7 hPa 0,0 l/m 0 min 0 min 226 W/m 16,1 km/h (3 Bft) 97,87 %
26.07.2022 17:50 21,2 C 21,1 C 17,8 C 70 % 1017,7 hPa 0,0 l/m 0 min 0 min 192 W/m 19,3 km/h (3 Bft) 100,00 %
26.07.2022 17:52 21,2 C 21,1 C 17,8 C 70 % 1017,7 hPa 0,0 l/m 0 min 0 min 198 W/m 16,1 km/h (3 Bft) 100,00 %
26.07.2022 17:54 21,1 C 21,1 C 17,8 C 71 % 1017,7 hPa 0,0 l/m 0 min 0 min 203 W/m 16,1 km/h (3 Bft) 97,87 %
26.07.2022 17:56 21,1 C 21,1 C 17,2 C 71 % 1017,8 hPa 0,0 l/m 0 min 0 min 201 W/m 19,3 km/h (3 Bft) 100,00 %
26.07.2022 17:58 21,1 C 20,6 C 17,2 C 72 % 1017,8 hPa 0,0 l/m 0 min 0 min 197 W/m 12,9 km/h (3 Bft) 100,00 %
26.07.2022 18:00 21,0 C 20,6 C 17,2 C 72 % 1017,7 hPa 0,0 l/m 0 min 0 min 183 W/m 12,9 km/h (3 Bft) 97,87 %
26.07.2022 18:02 20,9 C 20,6 C 17,2 C 73 % 1017,7 hPa 0,0 l/m 0 min 0 min 181 W/m 25,7 km/h (4 Bft) 100,00 %
26.07.2022 18:04 20,9 C 20,6 C 17,2 C 73 % 1017,7 hPa 0,0 l/m 0 min 0 min 196 W/m 9,7 km/h (2 Bft) 100,00 %
26.07.2022 18:08 20,8 C 20,6 C 17,2 C 74 % 1017,7 hPa 0,0 l/m 0 min 0 min 229 W/m 29,0 km/h (5 Bft) 100,00 %
26.07.2022 18:10 20,8 C 21,1 C 17,2 C 74 % 1017,7 hPa 0,0 l/m 2 min 0 min 236 W/m 19,3 km/h (3 Bft) 100,00 %
26.07.2022 18:12 20,7 C 21,1 C 17,2 C 73 % 1017,7 hPa 0,0 l/m 0 min 0 min 218 W/m 16,1 km/h (3 Bft) 97,87 %
26.07.2022 18:14 20,7 C 20,6 C 17,2 C 74 % 1017,6 hPa 0,0 l/m 0 min 0 min 190 W/m 25,7 km/h (4 Bft) 100,00 %
26.07.2022 18:16 20,7 C 20,6 C 17,2 C 73 % 1017,7 hPa 0,0 l/m 0 min 0 min 182 W/m 19,3 km/h (3 Bft) 100,00 %
26.07.2022 18:18 20,6 C 20,6 C 16,7 C 73 % 1017,7 hPa 0,0 l/m 0 min 0 min 184 W/m 22,5 km/h (4 Bft) 100,00 %
26.07.2022 18:20 20,6 C 20,6 C 16,7 C 73 % 1017,7 hPa 0,0 l/m 0 min 0 min 185 W/m 19,3 km/h (3 Bft) 97,87 %
26.07.2022 18:22 20,6 C 20,6 C 17,2 C 73 % 1017,7 hPa 0,0 l/m 0 min 0 min 180 W/m 19,3 km/h (3 Bft) 97,87 %
26.07.2022 18:24 20,6 C 20,6 C 16,7 C 73 % 1017,7 hPa 0,0 l/m 0 min 0 min 171 W/m 12,9 km/h (3 Bft) 100,00 %
26.07.2022 18:26 20,6 C 20,6 C 17,2 C 73 % 1017,7 hPa 0,0 l/m 0 min 0 min 181 W/m 16,1 km/h (3 Bft) 97,83 %
26.07.2022 18:28 20,6 C 21,1 C 16,7 C 72 % 1017,7 hPa 0,0 l/m 2 min 0 min 220 W/m 12,9 km/h (3 Bft) 100,00 %
26.07.2022 18:30 20,5 C 21,1 C 17,2 C 72 % 1017,6 hPa 0,0 l/m 2 min 0 min 249 W/m 12,9 km/h (3 Bft) 97,87 %
26.07.2022 18:32 20,6 C 21,1 C 17,2 C 73 % 1017,6 hPa 0,0 l/m 2 min 0 min 255 W/m 12,9 km/h (3 Bft) 97,87 %
26.07.2022 18:34 20,6 C 22,2 C 17,2 C 73 % 1017,6 hPa 0,0 l/m 2 min 0 min 297 W/m 19,3 km/h (3 Bft) 93,62 %
26.07.2022 18:36 20,7 C 21,7 C 17,2 C 72 % 1017,6 hPa 0,0 l/m 2 min 0 min 247 W/m 22,5 km/h (4 Bft) 93,62 %
26.07.2022 18:38 20,7 C 21,1 C 17,2 C 72 % 1017,7 hPa 0,0 l/m 2 min 0 min 224 W/m 19,3 km/h (3 Bft) 97,83 %
26.07.2022 18:40 20,7 C 21,1 C 17,2 C 72 % 1017,6 hPa 0,0 l/m 2 min 0 min 213 W/m 19,3 km/h (3 Bft) 97,87 %
26.07.2022 18:42 20,7 C 21,1 C 17,2 C 72 % 1017,6 hPa 0,0 l/m 2 min 0 min 207 W/m 12,9 km/h (3 Bft) 97,87 %
26.07.2022 18:44 20,7 C 21,1 C 17,2 C 72 % 1017,6 hPa 0,0 l/m 2 min 0 min 213 W/m 16,1 km/h (3 Bft) 95,74 %
26.07.2022 18:46 20,7 C 21,1 C 17,2 C 72 % 1017,7 hPa 0,0 l/m 2 min 0 min 247 W/m 19,3 km/h (3 Bft) 97,87 %
26.07.2022 18:48 20,7 C 21,1 C 17,2 C 72 % 1017,6 hPa 0,0 l/m 2 min 0 min 212 W/m 6,4 km/h (2 Bft) 97,87 %
26.07.2022 18:50 20,7 C 21,1 C 16,7 C 72 % 1017,6 hPa 0,0 l/m 2 min 0 min 194 W/m 19,3 km/h (3 Bft) 97,83 %
26.07.2022 18:52 20,7 C 21,1 C 16,7 C 72 % 1017,7 hPa 0,0 l/m 0 min 0 min 172 W/m 19,3 km/h (3 Bft) 97,87 %
26.07.2022 18:54 20,6 C 20,6 C 16,7 C 72 % 1017,7 hPa 0,0 l/m 0 min 0 min 157 W/m 19,3 km/h (3 Bft) 97,87 %
26.07.2022 18:56 20,6 C 20,6 C 16,7 C 72 % 1017,8 hPa 0,0 l/m 0 min 0 min 155 W/m 16,1 km/h (3 Bft) 97,87 %
26.07.2022 18:58 20,5 C 20,6 C 16,7 C 73 % 1017,7 hPa 0,0 l/m 0 min 0 min 150 W/m 12,9 km/h (3 Bft) 97,87 %
26.07.2022 19:00 20,4 C 20,6 C 16,7 C 72 % 1017,7 hPa 0,0 l/m 0 min 0 min 144 W/m 12,9 km/h (3 Bft) 95,74 %
26.07.2022 19:02 20,4 C 20,0 C 16,7 C 72 % 1017,8 hPa 0,0 l/m 0 min 0 min 131 W/m 12,9 km/h (3 Bft) 95,65 %
26.07.2022 19:04 20,3 C 20,0 C 16,1 C 72 % 1017,8 hPa 0,0 l/m 0 min 0 min 121 W/m 16,1 km/h (3 Bft) 97,87 %
26.07.2022 19:06 20,2 C 20,0 C 16,1 C 74 % 1017,8 hPa 0,0 l/m 0 min 0 min 113 W/m 16,1 km/h (3 Bft) 97,87 %
26.07.2022 19:08 20,1 C 19,4 C 16,1 C 74 % 1017,8 hPa 0,0 l/m 0 min 0 min 105 W/m 25,7 km/h (4 Bft) 97,87 %
26.07.2022 19:10 20,1 C 19,4 C 16,1 C 74 % 1017,8 hPa 0,0 l/m 0 min 0 min 107 W/m 22,5 km/h (4 Bft) 95,74 %
26.07.2022 19:12 19,9 C 19,4 C 15,6 C 74 % 1017,9 hPa 0,0 l/m 0 min 0 min 99 W/m 16,1 km/h (3 Bft) 95,74 %
26.07.2022 19:14 19,9 C 19,4 C 15,6 C 75 % 1017,8 hPa 0,0 l/m 0 min 0 min 97 W/m 9,7 km/h (2 Bft) 93,48 %
26.07.2022 19:16 19,8 C 19,4 C 15,6 C 76 % 1017,8 hPa 0,0 l/m 0 min 0 min 113 W/m 12,9 km/h (3 Bft) 95,74 %
26.07.2022 19:18 19,8 C 19,4 C 16,1 C 76 % 1017,9 hPa 0,0 l/m 0 min 0 min 128 W/m 9,7 km/h (2 Bft) 93,62 %
26.07.2022 19:20 19,8 C 19,4 C 16,1 C 77 % 1017,9 hPa 0,0 l/m 0 min 0 min 120 W/m 19,3 km/h (3 Bft) 97,87 %
26.07.2022 19:22 19,8 C 19,4 C 16,1 C 77 % 1017,9 hPa 0,0 l/m 0 min 0 min 109 W/m 16,1 km/h (3 Bft) 97,87 %
26.07.2022 19:24 19,7 C 19,4 C 15,6 C 78 % 1017,9 hPa 0,0 l/m 0 min 0 min 99 W/m 12,9 km/h (3 Bft) 97,87 %
26.07.2022 19:26 19,7 C 18,9 C 15,6 C 77 % 1017,9 hPa 0,0 l/m 0 min 0 min 98 W/m 19,3 km/h (3 Bft) 97,83 %
26.07.2022 19:28 19,6 C 18,9 C 15,6 C 78 % 1018,0 hPa 0,0 l/m 0 min 0 min 99 W/m 19,3 km/h (3 Bft) 97,87 %
26.07.2022 19:30 19,6 C 18,9 C 15,6 C 78 % 1018,0 hPa 0,0 l/m 0 min 0 min 105 W/m 16,1 km/h (3 Bft) 97,87 %
26.07.2022 19:32 19,5 C 18,9 C 15,6 C 79 % 1018,1 hPa 0,0 l/m 0 min 0 min 113 W/m 16,1 km/h (3 Bft) 97,87 %
26.07.2022 19:34 19,5 C 18,9 C 15,6 C 79 % 1018,0 hPa 0,0 l/m 0 min 0 min 113 W/m 16,1 km/h (3 Bft) 95,74 %
26.07.2022 19:36 19,4 C 18,9 C 15,6 C 79 % 1018,0 hPa 0,0 l/m 0 min 0 min 100 W/m 12,9 km/h (3 Bft) 97,87 %
26.07.2022 19:38 19,4 C 18,9 C 15,6 C 79 % 1018,0 hPa 0,0 l/m 0 min 0 min 87 W/m 9,7 km/h (2 Bft) 95,65 %
26.07.2022 19:40 19,4 C 18,9 C 15,6 C 79 % 1018,0 hPa 0,0 l/m 0 min 0 min 80 W/m 6,4 km/h (2 Bft) 95,74 %
26.07.2022 19:42 19,4 C 18,9 C 15,6 C 80 % 1018,0 hPa 0,0 l/m 0 min 0 min 75 W/m 12,9 km/h (3 Bft) 95,74 %
26.07.2022 19:44 19,4 C 18,9 C 15,6 C 79 % 1018,0 hPa 0,0 l/m 0 min 0 min 73 W/m 16,1 km/h (3 Bft) 95,74 %
26.07.2022 19:46 19,3 C 18,9 C 15,6 C 78 % 1018,0 hPa 0,0 l/m 0 min 0 min 72 W/m 9,7 km/h (2 Bft) 97,87 %
26.07.2022 19:48 19,3 C 18,9 C 15,6 C 78 % 1018,0 hPa 0,0 l/m 0 min 0 min 69 W/m 12,9 km/h (3 Bft) 97,87 %
26.07.2022 19:50 19,2 C 18,9 C 15,6 C 78 % 1018,0 hPa 0,0 l/m 0 min 0 min 60 W/m 9,7 km/h (2 Bft) 95,65 %
26.07.2022 19:52 19,2 C 18,9 C 15,6 C 78 % 1018,1 hPa 0,0 l/m 0 min 0 min 51 W/m 16,1 km/h (3 Bft) 95,74 %
26.07.2022 19:54 19,2 C 18,9 C 15,6 C 78 % 1018,1 hPa 0,0 l/m 0 min 0 min 47 W/m 12,9 km/h (3 Bft) 97,87 %
26.07.2022 19:56 19,2 C 18,3 C 15,0 C 78 % 1018,1 hPa 0,0 l/m 0 min 0 min 44 W/m 16,1 km/h (3 Bft) 97,87 %
26.07.2022 19:58 19,1 C 18,3 C 15,0 C 78 % 1018,0 hPa 0,0 l/m 0 min 0 min 39 W/m 9,7 km/h (2 Bft) 95,74 %
26.07.2022 20:00 19,1 C 18,3 C 15,0 C 78 % 1018,1 hPa 0,0 l/m 0 min 0 min 35 W/m 22,5 km/h (4 Bft) 97,87 %
26.07.2022 20:02 19,1 C 18,3 C 15,0 C 78 % 1018,2 hPa 0,0 l/m 0 min 0 min 35 W/m 12,9 km/h (3 Bft) 93,48 %
26.07.2022 20:04 19,1 C 18,3 C 15,0 C 78 % 1018,1 hPa 0,0 l/m 0 min 0 min 37 W/m 22,5 km/h (4 Bft) 97,87 %
26.07.2022 20:06 19,0 C 18,3 C 15,0 C 78 % 1018,0 hPa 0,0 l/m 0 min 0 min 37 W/m 16,1 km/h (3 Bft) 97,87 %
26.07.2022 20:08 19,0 C 18,3 C 15,0 C 78 % 1018,0 hPa 0,0 l/m 0 min 0 min 38 W/m 12,9 km/h (3 Bft) 95,74 %
26.07.2022 20:10 18,9 C 18,3 C 15,0 C 78 % 1018,0 hPa 0,0 l/m 0 min 0 min 35 W/m 16,1 km/h (3 Bft) 97,87 %
26.07.2022 20:12 18,9 C 18,3 C 15,0 C 79 % 1018,1 hPa 0,0 l/m 0 min 0 min 35 W/m 19,3 km/h (3 Bft) 97,87 %
26.07.2022 20:14 18,9 C 18,3 C 15,0 C 79 % 1018,0 hPa 0,0 l/m 0 min 0 min 38 W/m 12,9 km/h (3 Bft) 97,83 %
26.07.2022 20:16 18,8 C 18,3 C 15,0 C 79 % 1018,0 hPa 0,0 l/m 0 min 0 min 42 W/m 12,9 km/h (3 Bft) 97,87 %
26.07.2022 20:18 18,8 C 18,3 C 15,0 C 79 % 1018,0 hPa 0,0 l/m 0 min 0 min 46 W/m 12,9 km/h (3 Bft) 95,74 %
26.07.2022 20:20 18,8 C 18,3 C 15,0 C 79 % 1018,0 hPa 0,0 l/m 0 min 0 min 49 W/m 6,4 km/h (2 Bft) 97,87 %
26.07.2022 20:22 18,8 C 18,3 C 15,0 C 79 % 1018,0 hPa 0,0 l/m 0 min 0 min 47 W/m 6,4 km/h (2 Bft) 100,00 %
26.07.2022 20:24 18,7 C 18,3 C 15,0 C 79 % 1018,0 hPa 0,0 l/m 0 min 0 min 45 W/m 6,4 km/h (2 Bft) 100,00 %
26.07.2022 20:26 18,8 C 18,3 C 15,0 C 79 % 1018,0 hPa 0,0 l/m 0 min 0 min 40 W/m 12,9 km/h (3 Bft) 100,00 %
26.07.2022 20:28 18,7 C 18,3 C 15,0 C 79 % 1018,0 hPa 0,0 l/m 0 min 0 min 37 W/m 6,4 km/h (2 Bft) 100,00 %
26.07.2022 20:30 18,7 C 18,3 C 15,0 C 79 % 1018,1 hPa 0,0 l/m 0 min 0 min 33 W/m 12,9 km/h (3 Bft) 97,87 %
26.07.2022 20:32 18,7 C 18,3 C 15,0 C 79 % 1018,1 hPa 0,0 l/m 0 min 0 min 32 W/m 12,9 km/h (3 Bft) 100,00 %
26.07.2022 20:34 18,7 C 18,3 C 15,0 C 79 % 1018,2 hPa 0,0 l/m 0 min 0 min 33 W/m 9,7 km/h (2 Bft) 100,00 %
26.07.2022 20:36 18,7 C 18,3 C 15,0 C 79 % 1018,1 hPa 0,0 l/m 0 min 0 min 38 W/m 6,4 km/h (2 Bft) 100,00 %
26.07.2022 20:38 18,7 C 18,3 C 15,0 C 79 % 1018,1 hPa 0,0 l/m 0 min 0 min 41 W/m 6,4 km/h (2 Bft) 100,00 %
26.07.2022 20:40 18,7 C 18,3 C 15,0 C 79 % 1018,1 hPa 0,0 l/m 0 min 0 min 41 W/m 12,9 km/h (3 Bft) 100,00 %
26.07.2022 20:42 18,7 C 18,3 C 15,0 C 79 % 1018,0 hPa 0,0 l/m 0 min 0 min 35 W/m 9,7 km/h (2 Bft) 100,00 %
26.07.2022 20:44 18,7 C 18,3 C 15,0 C 79 % 1018,1 hPa 0,0 l/m 0 min 0 min 27 W/m 6,4 km/h (2 Bft) 100,00 %
26.07.2022 20:46 18,7 C 17,8 C 14,4 C 79 % 1018,0 hPa 0,0 l/m 0 min 0 min 23 W/m 12,9 km/h (3 Bft) 100,00 %
26.07.2022 20:48 18,7 C 17,8 C 14,4 C 79 % 1018,0 hPa 0,0 l/m 0 min 0 min 19 W/m 6,4 km/h (2 Bft) 100,00 %
26.07.2022 20:50 18,7 C 18,3 C 14,4 C 80 % 1018,0 hPa 0,0 l/m 0 min 0 min 18 W/m 12,9 km/h (3 Bft) 100,00 %
26.07.2022 20:52 18,7 C 18,3 C 14,4 C 79 % 1018,0 hPa 0,0 l/m 0 min 0 min 16 W/m 6,4 km/h (2 Bft) 100,00 %
26.07.2022 20:54 18,7 C 18,3 C 14,4 C 79 % 1018,0 hPa 0,0 l/m 0 min 0 min 15 W/m 9,7 km/h (2 Bft) 100,00 %
26.07.2022 20:56 18,7 C 18,3 C 14,4 C 79 % 1018,0 hPa 0,0 l/m 0 min 0 min 14 W/m 6,4 km/h (2 Bft) 100,00 %
26.07.2022 20:58 18,7 C 18,3 C 14,4 C 79 % 1018,0 hPa 0,0 l/m 0 min 0 min 14 W/m 6,4 km/h (2 Bft) 100,00 %
26.07.2022 21:00 18,7 C 18,3 C 14,4 C 79 % 1018,0 hPa 0,0 l/m 0 min 0 min 13 W/m 9,7 km/h (2 Bft) 100,00 %
26.07.2022 21:02 18,8 C 18,3 C 14,4 C 79 % 1018,0 hPa 0,0 l/m 0 min 0 min 12 W/m 9,7 km/h (2 Bft) 100,00 %
26.07.2022 21:04 18,8 C 18,3 C 14,4 C 79 % 1018,1 hPa 0,0 l/m 0 min 0 min 12 W/m 12,9 km/h (3 Bft) 100,00 %
26.07.2022 21:06 18,7 C 17,8 C 14,4 C 79 % 1018,1 hPa 0,0 l/m 0 min 0 min 11 W/m 12,9 km/h (3 Bft) 97,87 %
26.07.2022 21:08 18,7 C 17,8 C 14,4 C 79 % 1018,2 hPa 0,0 l/m 0 min 0 min 11 W/m 3,2 km/h (1 Bft) 97,87 %
26.07.2022 21:10 18,7 C 17,8 C 14,4 C 79 % 1018,2 hPa 0,0 l/m 0 min 0 min 11 W/m 3,2 km/h (1 Bft) 97,87 %
26.07.2022 21:12 18,7 C 17,8 C 14,4 C 79 % 1018,2 hPa 0,0 l/m 0 min 0 min 11 W/m 12,9 km/h (3 Bft) 97,83 %
26.07.2022 21:14 18,7 C 17,8 C 14,4 C 78 % 1018,2 hPa 0,0 l/m 0 min 0 min 10 W/m 6,4 km/h (2 Bft) 97,87 %
26.07.2022 21:16 18,6 C 17,8 C 14,4 C 78 % 1018,2 hPa 0,0 l/m 0 min 0 min 8 W/m 12,9 km/h (3 Bft) 95,74 %
26.07.2022 21:18 18,6 C 17,8 C 14,4 C 78 % 1018,2 hPa 0,0 l/m 0 min 0 min 7 W/m 12,9 km/h (3 Bft) 93,62 %
26.07.2022 21:20 18,6 C 17,8 C 14,4 C 79 % 1018,2 hPa 0,0 l/m 0 min 0 min 6 W/m 6,4 km/h (2 Bft) 97,87 %
26.07.2022 21:22 18,6 C 17,8 C 13,9 C 79 % 1018,2 hPa 0,0 l/m 0 min 0 min 5 W/m 6,4 km/h (2 Bft) 95,74 %
26.07.2022 21:24 18,5 C 17,8 C 13,9 C 79 % 1018,2 hPa 0,0 l/m 0 min 0 min 5 W/m 12,9 km/h (3 Bft) 97,83 %
26.07.2022 21:26 18,5 C 17,8 C 13,9 C 79 % 1018,2 hPa 0,0 l/m 0 min 0 min 1 W/m 9,7 km/h (2 Bft) 95,74 %
26.07.2022 21:28 18,5 C 17,8 C 13,9 C 79 % 1018,3 hPa 0,0 l/m 0 min 0 min 0 W/m 6,4 km/h (2 Bft) 97,87 %
26.07.2022 21:30 18,4 C 17,2 C 13,9 C 79 % 1018,3 hPa 0,0 l/m 0 min 0 min 0 W/m 9,7 km/h (2 Bft) 97,87 %
26.07.2022 21:32 18,4 C 17,2 C 13,9 C 79 % 1018,4 hPa 0,0 l/m 0 min 0 min 0 W/m 6,4 km/h (2 Bft) 95,74 %
26.07.2022 21:34 18,4 C 17,8 C 13,9 C 79 % 1018,4 hPa 0,0 l/m 0 min 0 min 0 W/m 6,4 km/h (2 Bft) 95,74 %
26.07.2022 21:36 18,4 C 17,8 C 13,9 C 80 % 1018,4 hPa 0,0 l/m 0 min 0 min 0 W/m 6,4 km/h (2 Bft) 95,65 %
26.07.2022 21:38 18,3 C 17,8 C 13,9 C 80 % 1018,4 hPa 0,0 l/m 0 min 0 min 0 W/m 9,7 km/h (2 Bft) 97,87 %
26.07.2022 21:40 18,4 C 17,8 C 14,4 C 80 % 1018,5 hPa 0,0 l/m 0 min 0 min 0 W/m 6,4 km/h (2 Bft) 97,87 %
26.07.2022 21:42 18,4 C 17,8 C 14,4 C 80 % 1018,4 hPa 0,0 l/m 0 min 0 min 0 W/m 6,4 km/h (2 Bft) 97,87 %
26.07.2022 21:44 18,4 C 17,8 C 13,9 C 80 % 1018,5 hPa 0,0 l/m 0 min 0 min 0 W/m 9,7 km/h (2 Bft) 97,87 %
26.07.2022 21:46 18,3 C 17,2 C 13,9 C 80 % 1018,5 hPa 0,0 l/m 0 min 0 min 0 W/m 6,4 km/h (2 Bft) 97,87 %
26.07.2022 21:48 18,3 C 17,2 C 13,9 C 80 % 1018,5 hPa 0,0 l/m 0 min 0 min 0 W/m 6,4 km/h (2 Bft) 97,83 %
26.07.2022 21:50 18,3 C 17,8 C 13,9 C 80 % 1018,6 hPa 0,0 l/m 0 min 0 min 0 W/m 6,4 km/h (2 Bft) 95,74 %
26.07.2022 21:52 18,3 C 17,8 C 13,9 C 80 % 1018,7 hPa 0,0 l/m 0 min 0 min 0 W/m 3,2 km/h (1 Bft) 95,74 %
26.07.2022 21:54 18,3 C 17,8 C 13,9 C 80 % 1018,7 hPa 0,0 l/m 0 min 0 min 0 W/m 9,7 km/h (2 Bft) 97,87 %
26.07.2022 21:56 18,3 C 17,8 C 13,9 C 81 % 1018,7 hPa 0,0 l/m 0 min 0 min 0 W/m 12,9 km/h (3 Bft) 97,87 %
26.07.2022 21:58 18,3 C 17,2 C 13,9 C 81 % 1018,7 hPa 0,0 l/m 0 min 0 min 0 W/m 12,9 km/h (3 Bft) 97,87 %
26.07.2022 22:00 18,3 C 17,2 C 13,9 C 81 % 1018,7 hPa 0,0 l/m 0 min 0 min 0 W/m 9,7 km/h (2 Bft) 95,65 %
26.07.2022 22:02 18,3 C 17,2 C 13,9 C 81 % 1018,7 hPa 0,0 l/m 0 min 0 min 0 W/m 9,7 km/h (2 Bft) 97,87 %
26.07.2022 22:04 18,3 C 17,2 C 13,9 C 81 % 1018,7 hPa 0,0 l/m 0 min 0 min 0 W/m 6,4 km/h (2 Bft) 95,74 %
26.07.2022 22:06 18,3 C 17,2 C 13,9 C 81 % 1018,7 hPa 0,0 l/m 0 min 0 min 0 W/m 12,9 km/h (3 Bft) 97,87 %
26.07.2022 22:08 18,2 C 17,2 C 13,9 C 81 % 1018,7 hPa 0,0 l/m 0 min 0 min 0 W/m 12,9 km/h (3 Bft) 97,87 %
26.07.2022 22:10 18,2 C 17,2 C 13,9 C 81 % 1018,7 hPa 0,0 l/m 0 min 0 min 0 W/m 3,2 km/h (1 Bft) 97,87 %
26.07.2022 22:12 18,2 C 17,2 C 13,9 C 82 % 1018,7 hPa 0,0 l/m 0 min 0 min 0 W/m 9,7 km/h (2 Bft) 97,83 %
26.07.2022 22:14 18,2 C 17,2 C 13,9 C 82 % 1018,8 hPa 0,0 l/m 0 min 0 min 0 W/m 6,4 km/h (2 Bft) 97,87 %
26.07.2022 22:16 18,2 C 17,2 C 13,9 C 82 % 1018,8 hPa 0,0 l/m 0 min 0 min 0 W/m 6,4 km/h (2 Bft) 97,87 %
26.07.2022 22:18 18,1 C 17,2 C 13,9 C 82 % 1018,8 hPa 0,0 l/m 0 min 0 min 0 W/m 6,4 km/h (2 Bft) 97,87 %
26.07.2022 22:20 18,1 C 17,2 C 13,9 C 81 % 1018,8 hPa 0,0 l/m 0 min 0 min 0 W/m 9,7 km/h (2 Bft) 100,00 %
26.07.2022 22:22 18,1 C 17,2 C 13,9 C 81 % 1018,8 hPa 0,0 l/m 0 min 0 min 0 W/m 6,4 km/h (2 Bft) 100,00 %
26.07.2022 22:24 18,1 C 17,2 C 13,9 C 81 % 1018,9 hPa 0,0 l/m 0 min 0 min 0 W/m 12,9 km/h (3 Bft) 100,00 %
26.07.2022 22:26 18,0 C 16,7 C 13,9 C 81 % 1018,9 hPa 0,0 l/m 0 min 0 min 0 W/m 12,9 km/h (3 Bft) 100,00 %
26.07.2022 22:28 17,9 C 16,7 C 13,3 C 81 % 1018,9 hPa 0,0 l/m 0 min 0 min 0 W/m 9,7 km/h (2 Bft) 97,87 %
26.07.2022 22:30 17,9 C 16,7 C 13,3 C 81 % 1019,0 hPa 0,0 l/m 0 min 0 min 0 W/m 9,7 km/h (2 Bft) 97,87 %
26.07.2022 22:32 17,9 C 16,7 C 13,3 C 80 % 1019,0 hPa 0,0 l/m 0 min 0 min 0 W/m 9,7 km/h (2 Bft) 97,87 %
26.07.2022 22:34 17,8 C 16,7 C 13,3 C 80 % 1019,0 hPa 0,0 l/m 0 min 0 min 0 W/m 16,1 km/h (3 Bft) 97,87 %
26.07.2022 22:36 17,7 C 16,7 C 13,3 C 79 % 1019,0 hPa 0,0 l/m 0 min 0 min 0 W/m 12,9 km/h (3 Bft) 97,83 %
26.07.2022 22:38 17,7 C 16,7 C 13,3 C 79 % 1019,0 hPa 0,0 l/m 0 min 0 min 0 W/m 16,1 km/h (3 Bft) 97,87 %
26.07.2022 22:40 17,6 C 16,7 C 13,3 C 78 % 1019,0 hPa 0,0 l/m 0 min 0 min 0 W/m 9,7 km/h (2 Bft) 95,74 %
26.07.2022 22:42 17,6 C 16,7 C 13,3 C 77 % 1019,0 hPa 0,0 l/m 0 min 0 min 0 W/m 9,7 km/h (2 Bft) 97,87 %
26.07.2022 22:44 17,5 C 16,7 C 13,3 C 76 % 1019,0 hPa 0,0 l/m 0 min 0 min 0 W/m 6,4 km/h (2 Bft) 95,74 %
26.07.2022 22:46 17,5 C 16,7 C 13,3 C 75 % 1019,0 hPa 0,0 l/m 0 min 0 min 0 W/m 9,7 km/h (2 Bft) 97,87 %
26.07.2022 22:48 17,4 C 16,7 C 13,3 C 75 % 1019,0 hPa 0,0 l/m 0 min 0 min 0 W/m 6,4 km/h (2 Bft) 97,83 %
26.07.2022 22:50 17,4 C 16,7 C 13,3 C 74 % 1019,0 hPa 0,0 l/m 0 min 0 min 0 W/m 9,7 km/h (2 Bft) 97,87 %
26.07.2022 22:52 17,3 C 16,7 C 13,3 C 74 % 1019,1 hPa 0,0 l/m 0 min 0 min 0 W/m 9,7 km/h (2 Bft) 97,87 %
26.07.2022 22:54 17,3 C 16,7 C 13,3 C 73 % 1019,1 hPa 0,0 l/m 0 min 0 min 0 W/m 6,4 km/h (2 Bft) 97,87 %
26.07.2022 22:56 17,3 C 16,7 C 12,8 C 73 % 1019,1 hPa 0,0 l/m 0 min 0 min 0 W/m 16,1 km/h (3 Bft) 93,62 %
26.07.2022 22:58 17,3 C 16,7 C 13,3 C 72 % 1019,1 hPa 0,0 l/m 0 min 0 min 0 W/m 16,1 km/h (3 Bft) 95,74 %
26.07.2022 23:00 17,2 C 16,7 C 13,3 C 73 % 1019,2 hPa 0,0 l/m 0 min 0 min 0 W/m 9,7 km/h (2 Bft) 95,65 %
26.07.2022 23:02 17,2 C 16,7 C 12,8 C 72 % 1019,2 hPa 0,0 l/m 0 min 0 min 0 W/m 16,1 km/h (3 Bft) 93,62 %
26.07.2022 23:04 17,2 C 16,7 C 12,8 C 72 % 1019,2 hPa 0,0 l/m 0 min 0 min 0 W/m 16,1 km/h (3 Bft) 93,62 %
26.07.2022 23:06 17,2 C 16,7 C 13,3 C 72 % 1019,2 hPa 0,0 l/m 0 min 0 min 0 W/m 16,1 km/h (3 Bft) 93,62 %
26.07.2022 23:08 17,2 C 16,7 C 13,3 C 72 % 1019,2 hPa 0,0 l/m 0 min 0 min 0 W/m 9,7 km/h (2 Bft) 95,74 %
26.07.2022 23:10 17,2 C 16,7 C 13,3 C 72 % 1019,2 hPa 0,0 l/m 0 min 0 min 0 W/m 3,2 km/h (1 Bft) 95,74 %
26.07.2022 23:12 17,2 C 16,7 C 13,3 C 73 % 1019,2 hPa 0,0 l/m 0 min 0 min 0 W/m 3,2 km/h (1 Bft) 95,65 %
26.07.2022 23:14 17,2 C 16,7 C 13,3 C 73 % 1019,3 hPa 0,0 l/m 0 min 0 min 0 W/m 6,4 km/h (2 Bft) 95,74 %
26.07.2022 23:16 17,2 C 16,7 C 13,3 C 72 % 1019,3 hPa 0,0 l/m 0 min 0 min 0 W/m 3,2 km/h (1 Bft) 95,74 %
26.07.2022 23:18 17,2 C 16,7 C 13,3 C 72 % 1019,3 hPa 0,0 l/m 0 min 0 min 0 W/m 12,9 km/h (3 Bft) 93,62 %
26.07.2022 23:20 17,2 C 16,7 C 13,3 C 71 % 1019,3 hPa 0,0 l/m 0 min 0 min 0 W/m 9,7 km/h (2 Bft) 97,87 %
26.07.2022 23:22 17,2 C 16,7 C 13,3 C 71 % 1019,3 hPa 0,0 l/m 0 min 0 min 0 W/m 6,4 km/h (2 Bft) 97,87 %
26.07.2022 23:24 17,2 C 16,7 C 13,3 C 71 % 1019,3 hPa 0,0 l/m 0 min 0 min 0 W/m 3,2 km/h (1 Bft) 97,83 %
26.07.2022 23:26 17,3 C 16,7 C 13,3 C 70 % 1019,4 hPa 0,0 l/m 0 min 0 min 0 W/m 6,4 km/h (2 Bft) 100,00 %
26.07.2022 23:28 17,3 C 16,7 C 13,3 C 70 % 1019,3 hPa 0,0 l/m 0 min 0 min 0 W/m 6,4 km/h (2 Bft) 100,00 %
26.07.2022 23:30 17,3 C 16,7 C 13,3 C 70 % 1019,3 hPa 0,0 l/m 0 min 0 min 0 W/m 9,7 km/h (2 Bft) 100,00 %
26.07.2022 23:32 17,3 C 16,7 C 13,3 C 70 % 1019,3 hPa 0,0 l/m 0 min 0 min 0 W/m 9,7 km/h (2 Bft) 100,00 %
26.07.2022 23:34 17,3 C 16,7 C 13,3 C 70 % 1019,3 hPa 0,0 l/m 0 min 0 min 0 W/m 9,7 km/h (2 Bft) 100,00 %
26.07.2022 23:36 17,3 C 16,7 C 13,3 C 70 % 1019,4 hPa 0,0 l/m 0 min 0 min 0 W/m 6,4 km/h (2 Bft) 100,00 %
26.07.2022 23:38 17,3 C 16,7 C 13,3 C 70 % 1019,5 hPa 0,0 l/m 0 min 0 min 0 W/m 6,4 km/h (2 Bft) 100,00 %
26.07.2022 23:40 17,3 C 16,7 C 13,3 C 70 % 1019,4 hPa 0,0 l/m 0 min 0 min 0 W/m 3,2 km/h (1 Bft) 100,00 %
26.07.2022 23:42 17,3 C 16,7 C 12,8 C 70 % 1019,5 hPa 0,0 l/m 0 min 0 min 0 W/m 6,4 km/h (2 Bft) 100,00 %
26.07.2022 23:44 17,3 C 16,7 C 12,8 C 70 % 1019,5 hPa 0,0 l/m 0 min 0 min 0 W/m 6,4 km/h (2 Bft) 97,87 %
26.07.2022 23:46 17,2 C 16,7 C 12,8 C 70 % 1019,5 hPa 0,0 l/m 0 min 0 min 0 W/m 6,4 km/h (2 Bft) 100,00 %
26.07.2022 23:48 17,2 C 16,7 C 12,8 C 70 % 1019,5 hPa 0,0 l/m 0 min 0 min 0 W/m 6,4 km/h (2 Bft) 100,00 %
26.07.2022 23:50 17,2 C 16,7 C 12,8 C 70 % 1019,5 hPa 0,0 l/m 0 min 0 min 0 W/m 16,1 km/h (3 Bft) 100,00 %
26.07.2022 23:52 17,2 C 16,7 C 12,8 C 70 % 1019,5 hPa 0,0 l/m 0 min 0 min 0 W/m 6,4 km/h (2 Bft) 100,00 %
26.07.2022 23:54 17,2 C 16,7 C 12,8 C 70 % 1019,5 hPa 0,0 l/m 0 min 0 min 0 W/m 6,4 km/h (2 Bft) 100,00 %
26.07.2022 23:56 17,2 C 16,7 C 12,8 C 71 % 1019,5 hPa 0,0 l/m 0 min 0 min 0 W/m 9,7 km/h (2 Bft) 97,87 %
26.07.2022 23:58 17,1 C 16,7 C 12,8 C 71 % 1019,5 hPa 0,0 l/m 0 min 0 min 0 W/m 6,4 km/h (2 Bft) 100,00 %
_ Min-Zeit 23:58 06:14 22:56 15:06 00:00 - - - - 01:10 15:22
Minimum _ 17,1 C 16,7 C 12,8 C 67 % 1013,1 hPa - - - - 3,2 km/h (1 Bft) 91,30 %
_ Max-Zeit 12:28 15:00 12:24 07:04 23:38 00:00 10:00 11:30 14:14 12:36 00:10
Maximum _ 23,4 C 27,2 C 26,1 C 86 % 1019,5 hPa 0,0 l/m 4 min 2 min 1136 W/m 38,6 km/h
N-NW (5 Bft)
100,00 %
Durchschnitt _ 19,8 C 19,7 C 16,0 C 77 % 1016,2 hPa #0,0 l/m #4:44 h #2 min. 278 W/m 12,6 km/h (3 Bft) 97,71 %
© 2022 W. Hausmann